Time,TemperatureF,DewpointF,PressureIn,WindDirection,WindDirectionDegrees,WindSpeedMPH,WindSpeedGustMPH,Humidity,HourlyPrecipIn,Conditions,Clouds,dailyrainin,SoftwareType,DateUTC
2013-03-13 00:03:00,19.3,15.3,30.31,NNW,337,1.0,5.0,84,0.00,,,0.02,Wunderground v.1.15,2013-03-13 05:03:00,
2013-03-13 00:04:00,19.2,15.2,30.31,WNW,294,1.0,5.0,84,0.00,,,0.02,Wunderground v.1.15,2013-03-13 05:04:00,
2013-03-13 00:07:00,19.1,15.3,30.31,NNW,342,2.0,5.0,85,0.00,,,0.02,Wunderground v.1.15,2013-03-13 05:07:00,
2013-03-13 00:09:00,19.1,15.3,30.31,NNW,332,1.0,5.0,85,0.00,,,0.02,Wunderground v.1.15,2013-03-13 05:09:00,
2013-03-13 00:13:00,19.0,15.5,30.31,NW,321,2.0,2.0,86,0.00,,,0.02,Wunderground v.1.15,2013-03-13 05:13:00,
2013-03-13 00:14:00,19.0,15.2,30.31,NW,321,2.0,2.0,85,0.00,,,0.02,Wunderground v.1.15,2013-03-13 05:14:00,
2013-03-13 00:17:00,19.1,15.6,30.31,West,281,2.0,4.0,86,0.00,,,0.02,Wunderground v.1.15,2013-03-13 05:17:00,
2013-03-13 00:20:00,19.2,15.7,30.31,NW,326,5.0,5.0,86,0.00,,,0.00,Wunderground v.1.15,2013-03-13 05:20:00,
2013-03-13 00:24:00,19.3,15.5,30.31,West,281,1.0,5.0,85,0.00,,,0.00,Wunderground v.1.15,2013-03-13 05:24:00,
2013-03-13 00:29:00,19.3,15.5,30.31,WNW,296,2.0,5.0,85,0.00,,,0.00,Wunderground v.1.15,2013-03-13 05:29:00,
2013-03-13 00:30:00,19.2,15.4,30.31,WNW,296,1.0,2.0,85,0.00,,,0.00,Wunderground v.1.15,2013-03-13 05:30:00,
2013-03-13 00:33:00,19.1,15.3,30.31,West,271,2.0,2.0,85,0.00,,,0.00,Wunderground v.1.15,2013-03-13 05:33:00,
2013-03-13 00:36:00,19.1,15.3,30.31,West,271,3.0,3.0,85,0.00,,,0.00,Wunderground v.1.15,2013-03-13 05:36:00,
2013-03-13 00:38:00,19.1,15.3,30.31,NW,308,1.0,3.0,85,0.00,,,0.00,Wunderground v.1.15,2013-03-13 05:38:00,
2013-03-13 00:40:00,19.0,15.2,30.31,NW,309,2.0,2.0,85,0.00,,,0.00,Wunderground v.1.15,2013-03-13 05:40:00,
2013-03-13 00:41:00,18.9,15.1,30.31,NW,309,1.0,2.0,85,0.00,,,0.00,Wunderground v.1.15,2013-03-13 05:41:00,
2013-03-13 00:44:00,18.9,15.1,30.31,WNW,297,1.0,3.0,85,0.00,,,0.00,Wunderground v.1.15,2013-03-13 05:44:00,
2013-03-13 00:45:00,18.9,15.1,30.31,WNW,297,2.0,3.0,85,0.00,,,0.00,Wunderground v.1.15,2013-03-13 05:45:00,
2013-03-13 00:47:00,18.8,15.0,30.31,NW,316,3.0,3.0,85,0.00,,,0.00,Wunderground v.1.15,2013-03-13 05:47:00,
2013-03-13 00:48:00,18.8,15.0,30.32,West,278,3.0,3.0,85,0.00,,,0.00,Wunderground v.1.15,2013-03-13 05:48:00,
2013-03-13 00:52:00,18.7,14.9,30.31,West,279,1.0,4.0,85,0.00,,,0.00,Wunderground v.1.15,2013-03-13 05:52:00,
2013-03-13 00:53:00,18.6,14.8,30.31,West,279,3.0,4.0,85,0.00,,,0.00,Wunderground v.1.15,2013-03-13 05:53:00,
2013-03-13 00:58:00,18.5,14.5,30.32,NW,322,6.0,7.0,84,0.00,,,0.00,Wunderground v.1.15,2013-03-13 05:58:00,
2013-03-13 01:01:00,18.4,14.4,30.32,NNW,327,6.0,7.0,84,0.00,,,0.00,Wunderground v.1.15,2013-03-13 06:01:00,
2013-03-13 01:03:00,18.4,14.4,30.32,NW,324,5.0,7.0,84,0.00,,,0.00,Wunderground v.1.15,2013-03-13 06:03:00,
2013-03-13 01:04:00,18.3,14.3,30.32,NNW,334,3.0,7.0,84,0.00,,,0.00,Wunderground v.1.15,2013-03-13 06:04:00,
2013-03-13 01:07:00,18.2,14.2,30.32,NW,319,1.0,7.0,84,0.00,,,0.00,Wunderground v.1.15,2013-03-13 06:07:00,
2013-03-13 01:11:00,18.0,14.3,30.32,NW,313,2.0,3.0,85,0.00,,,0.00,Wunderground v.1.15,2013-03-13 06:11:00,
2013-03-13 01:12:00,18.0,14.3,30.32,NW,313,2.0,3.0,85,0.00,,,0.00,Wunderground v.1.15,2013-03-13 06:12:00,
2013-03-13 01:13:00,18.0,14.3,30.32,NW,319,1.0,3.0,85,0.00,,,0.00,Wunderground v.1.15,2013-03-13 06:13:00,
2013-03-13 01:17:00,17.9,14.2,30.32,NW,320,6.0,6.0,85,0.00,,,0.00,Wunderground v.1.15,2013-03-13 06:17:00,
2013-03-13 01:21:00,17.8,14.1,30.32,NW,314,1.0,2.0,85,0.00,,,0.00,Wunderground v.1.15,2013-03-13 06:21:00,
2013-03-13 01:23:00,17.7,14.2,30.32,NW,314,1.0,2.0,86,0.00,,,0.00,Wunderground v.1.15,2013-03-13 06:23:00,
2013-03-13 01:25:00,17.7,14.2,30.32,NW,304,2.0,3.0,86,0.00,,,0.00,Wunderground v.1.15,2013-03-13 06:25:00,
2013-03-13 01:28:00,17.7,14.2,30.32,NW,304,2.0,3.0,86,0.00,,,0.00,Wunderground v.1.15,2013-03-13 06:28:00,
2013-03-13 01:30:00,17.7,14.2,30.33,WNW,300,0.0,2.0,86,0.00,,,0.00,Wunderground v.1.15,2013-03-13 06:30:00,
2013-03-13 01:34:00,17.6,14.1,30.33,NW,305,2.0,2.0,86,0.00,,,0.00,Wunderground v.1.15,2013-03-13 06:34:00,
2013-03-13 01:36:00,17.6,14.1,30.33,NW,305,1.0,2.0,86,0.00,,,0.00,Wunderground v.1.15,2013-03-13 06:36:00,
2013-03-13 01:39:00,17.6,14.1,30.33,NW,308,0.0,2.0,86,0.00,,,0.00,Wunderground v.1.15,2013-03-13 06:39:00,
2013-03-13 01:42:00,17.5,14.0,30.33,NW,308,1.0,2.0,86,0.00,,,0.00,Wunderground v.1.15,2013-03-13 06:42:00,
2013-03-13 01:44:00,17.4,13.9,30.33,NW,308,2.0,2.0,86,0.00,,,0.00,Wunderground v.1.15,2013-03-13 06:44:00,
2013-03-13 01:45:00,17.4,13.9,30.33,NW,308,2.0,2.0,86,0.00,,,0.00,Wunderground v.1.15,2013-03-13 06:45:00,
2013-03-13 01:48:00,17.4,13.9,30.33,NW,307,2.0,2.0,86,0.00,,,0.00,Wunderground v.1.15,2013-03-13 06:48:00,
2013-03-13 01:52:00,17.3,13.8,30.33,NW,310,0.0,2.0,86,0.00,,,0.00,Wunderground v.1.15,2013-03-13 06:52:00,
2013-03-13 01:53:00,17.3,13.8,30.33,NW,310,2.0,2.0,86,0.00,,,0.00,Wunderground v.1.15,2013-03-13 06:53:00,
2013-03-13 01:54:00,17.3,13.8,30.33,NW,317,2.0,2.0,86,0.00,,,0.00,Wunderground v.1.15,2013-03-13 06:54:00,
2013-03-13 01:56:00,17.3,13.8,30.33,West,275,1.0,2.0,86,0.00,,,0.00,Wunderground v.1.15,2013-03-13 06:56:00,
2013-03-13 01:58:00,17.3,13.8,30.33,NW,324,0.0,2.0,86,0.00,,,0.00,Wunderground v.1.15,2013-03-13 06:58:00,
2013-03-13 01:59:00,17.3,13.8,30.33,NW,324,2.0,2.0,86,0.00,,,0.00,Wunderground v.1.15,2013-03-13 06:59:00,
2013-03-13 02:01:00,17.3,13.8,30.33,NW,324,2.0,2.0,86,0.00,,,0.00,Wunderground v.1.15,2013-03-13 07:01:00,
2013-03-13 02:03:00,17.3,13.8,30.34,NNW,333,2.0,3.0,86,0.00,,,0.00,Wunderground v.1.15,2013-03-13 07:03:00,
2013-03-13 02:04:00,17.3,13.8,30.34,NNW,333,0.0,3.0,86,0.00,,,0.00,Wunderground v.1.15,2013-03-13 07:04:00,
2013-03-13 02:06:00,17.2,13.7,30.34,NNW,332,1.0,3.0,86,0.00,,,0.00,Wunderground v.1.15,2013-03-13 07:06:00,
2013-03-13 02:08:00,17.2,13.7,30.34,NNW,332,1.0,3.0,86,0.00,,,0.00,Wunderground v.1.15,2013-03-13 07:08:00,
2013-03-13 02:09:00,17.1,13.6,30.34,NNW,332,1.0,1.0,86,0.00,,,0.00,Wunderground v.1.15,2013-03-13 07:09:00,
2013-03-13 02:12:00,17.1,13.6,30.34,NNW,332,0.0,3.0,86,0.00,,,0.00,Wunderground v.1.15,2013-03-13 07:12:00,
2013-03-13 02:13:00,17.0,13.5,30.34,NNW,332,0.0,3.0,86,0.00,,,0.00,Wunderground v.1.15,2013-03-13 07:13:00,
2013-03-13 02:15:00,17.0,13.8,30.34,NNW,332,0.0,3.0,87,0.00,,,0.00,Wunderground v.1.15,2013-03-13 07:15:00,
2013-03-13 02:17:00,17.0,13.8,30.34,NNW,332,0.0,3.0,87,0.00,,,0.00,Wunderground v.1.15,2013-03-13 07:17:00,
2013-03-13 02:18:00,16.9,13.7,30.34,NNW,332,1.0,3.0,87,0.00,,,0.00,Wunderground v.1.15,2013-03-13 07:18:00,
2013-03-13 02:20:00,16.9,13.7,30.34,NNW,332,2.0,2.0,87,0.00,,,0.00,Wunderground v.1.15,2013-03-13 07:20:00,
2013-03-13 02:22:00,16.9,13.7,30.34,NNW,332,0.0,2.0,87,0.00,,,0.00,Wunderground v.1.15,2013-03-13 07:22:00,
2013-03-13 02:23:00,16.8,13.6,30.34,NNW,332,0.0,2.0,87,0.00,,,0.00,Wunderground v.1.15,2013-03-13 07:23:00,
2013-03-13 02:24:00,16.9,13.7,30.34,NNW,332,0.0,2.0,87,0.00,,,0.00,Wunderground v.1.15,2013-03-13 07:24:00,
2013-03-13 02:25:00,16.8,13.6,30.34,NNW,332,1.0,2.0,87,0.00,,,0.00,Wunderground v.1.15,2013-03-13 07:25:00,
2013-03-13 02:27:00,16.8,13.6,30.34,NNW,332,0.0,2.0,87,0.00,,,0.00,Wunderground v.1.15,2013-03-13 07:27:00,
2013-03-13 02:29:00,16.8,13.6,30.34,NNW,332,2.0,2.0,87,0.00,,,0.00,Wunderground v.1.15,2013-03-13 07:29:00,
2013-03-13 02:30:00,16.7,13.5,30.34,NNW,332,1.0,2.0,87,0.00,,,0.00,Wunderground v.1.15,2013-03-13 07:30:00,
2013-03-13 02:32:00,16.7,13.5,30.34,NNW,332,1.0,2.0,87,0.00,,,0.00,Wunderground v.1.15,2013-03-13 07:32:00,
2013-03-13 02:34:00,16.7,13.5,30.34,NW,321,1.0,3.0,87,0.00,,,0.00,Wunderground v.1.15,2013-03-13 07:34:00,
2013-03-13 02:35:00,16.7,13.5,30.35,NW,321,1.0,3.0,87,0.00,,,0.00,Wunderground v.1.15,2013-03-13 07:35:00,
2013-03-13 02:37:00,16.7,13.5,30.34,NW,319,2.0,3.0,87,0.00,,,0.00,Wunderground v.1.15,2013-03-13 07:37:00,
2013-03-13 02:39:00,16.7,13.8,30.34,NW,319,0.0,3.0,88,0.00,,,0.00,Wunderground v.1.15,2013-03-13 07:39:00,
2013-03-13 02:40:00,16.8,13.9,30.34,NW,319,0.0,1.0,88,0.00,,,0.00,Wunderground v.1.15,2013-03-13 07:40:00,
2013-03-13 02:41:00,16.8,13.9,30.35,NW,319,1.0,2.0,88,0.00,,,0.00,Wunderground v.1.15,2013-03-13 07:41:00,
2013-03-13 02:43:00,16.8,13.6,30.35,NW,319,1.0,3.0,87,0.00,,,0.00,Wunderground v.1.15,2013-03-13 07:43:00,
2013-03-13 02:44:00,16.9,13.7,30.35,NW,319,1.0,3.0,87,0.00,,,0.00,Wunderground v.1.15,2013-03-13 07:44:00,
2013-03-13 02:45:00,16.8,13.6,30.35,NW,319,0.0,3.0,87,0.00,,,0.00,Wunderground v.1.15,2013-03-13 07:45:00,
2013-03-13 02:47:00,16.9,13.7,30.35,NW,319,2.0,3.0,87,0.00,,,0.00,Wunderground v.1.15,2013-03-13 07:47:00,
2013-03-13 02:48:00,16.9,13.7,30.35,NW,319,1.0,3.0,87,0.00,,,0.00,Wunderground v.1.15,2013-03-13 07:48:00,
2013-03-13 02:49:00,16.8,13.6,30.35,NW,319,1.0,3.0,87,0.00,,,0.00,Wunderground v.1.15,2013-03-13 07:49:00,
2013-03-13 02:50:00,16.9,13.7,30.34,NW,319,1.0,1.0,87,0.00,,,0.00,Wunderground v.1.15,2013-03-13 07:50:00,
2013-03-13 02:53:00,16.9,13.7,30.35,NW,319,0.0,2.0,87,0.00,,,0.00,Wunderground v.1.15,2013-03-13 07:53:00,
2013-03-13 02:54:00,16.9,13.7,30.35,NW,319,2.0,2.0,87,0.00,,,0.00,Wunderground v.1.15,2013-03-13 07:54:00,
2013-03-13 02:55:00,16.9,13.7,30.35,NW,319,1.0,2.0,87,0.00,,,0.00,Wunderground v.1.15,2013-03-13 07:55:00,
2013-03-13 02:57:00,16.8,13.6,30.35,NW,319,3.0,3.0,87,0.00,,,0.00,Wunderground v.1.15,2013-03-13 07:57:00,
2013-03-13 02:58:00,16.8,13.6,30.35,NW,319,0.0,3.0,87,0.00,,,0.00,Wunderground v.1.15,2013-03-13 07:58:00,
2013-03-13 02:59:00,16.8,13.6,30.35,NW,319,0.0,3.0,87,0.00,,,0.00,Wunderground v.1.15,2013-03-13 07:59:00,
2013-03-13 03:00:00,16.8,13.6,30.35,NW,319,0.0,2.0,87,0.00,,,0.00,Wunderground v.1.15,2013-03-13 08:00:00,
2013-03-13 03:02:00,16.8,13.6,30.35,NW,319,0.0,2.0,87,0.00,,,0.00,Wunderground v.1.15,2013-03-13 08:02:00,
2013-03-13 03:03:00,16.8,13.6,30.35,NW,319,1.0,2.0,87,0.00,,,0.00,Wunderground v.1.15,2013-03-13 08:03:00,
2013-03-13 03:04:00,16.8,13.6,30.35,NW,319,1.0,2.0,87,0.00,,,0.00,Wunderground v.1.15,2013-03-13 08:04:00,
2013-03-13 03:08:00,16.7,13.5,30.35,NW,319,0.0,2.0,87,0.00,,,0.00,Wunderground v.1.15,2013-03-13 08:08:00,
2013-03-13 03:09:00,16.8,13.6,30.35,NW,319,1.0,2.0,87,0.00,,,0.00,Wunderground v.1.15,2013-03-13 08:09:00,
2013-03-13 03:11:00,16.7,13.5,30.35,NW,319,3.0,3.0,87,0.00,,,0.00,Wunderground v.1.15,2013-03-13 08:11:00,
2013-03-13 03:13:00,16.7,13.5,30.35,NW,319,0.0,3.0,87,0.00,,,0.00,Wunderground v.1.15,2013-03-13 08:13:00,
2013-03-13 03:14:00,16.7,13.5,30.35,NW,318,2.0,3.0,87,0.00,,,0.00,Wunderground v.1.15,2013-03-13 08:14:00,
2013-03-13 03:16:00,16.6,13.4,30.35,NW,318,0.0,3.0,87,0.00,,,0.00,Wunderground v.1.15,2013-03-13 08:16:00,
2013-03-13 03:18:00,16.6,13.4,30.35,NW,318,0.0,3.0,87,0.00,,,0.00,Wunderground v.1.15,2013-03-13 08:18:00,
2013-03-13 03:19:00,16.6,13.4,30.35,NW,318,0.0,3.0,87,0.00,,,0.00,Wunderground v.1.15,2013-03-13 08:19:00,
2013-03-13 03:23:00,16.5,13.3,30.36,NW,318,1.0,2.0,87,0.00,,,0.00,Wunderground v.1.15,2013-03-13 08:23:00,
2013-03-13 03:24:00,16.5,13.3,30.35,NW,318,0.0,2.0,87,0.00,,,0.00,Wunderground v.1.15,2013-03-13 08:24:00,
2013-03-13 03:28:00,16.4,13.2,30.36,NW,318,0.0,3.0,87,0.00,,,0.00,Wunderground v.1.15,2013-03-13 08:28:00,
2013-03-13 03:29:00,16.4,13.2,30.36,NW,318,0.0,3.0,87,0.00,,,0.00,Wunderground v.1.15,2013-03-13 08:29:00,
2013-03-13 03:33:00,16.4,13.2,30.36,NW,318,1.0,2.0,87,0.00,,,0.00,Wunderground v.1.15,2013-03-13 08:33:00,
2013-03-13 03:34:00,16.4,13.2,30.36,NW,318,2.0,2.0,87,0.00,,,0.00,Wunderground v.1.15,2013-03-13 08:34:00,
2013-03-13 03:39:00,16.4,13.2,30.36,NW,318,1.0,2.0,87,0.00,,,0.00,Wunderground v.1.15,2013-03-13 08:39:00,
2013-03-13 03:40:00,16.4,13.2,30.36,NW,318,2.0,2.0,87,0.00,,,0.00,Wunderground v.1.15,2013-03-13 08:40:00,
2013-03-13 03:45:00,16.3,13.1,30.36,NW,318,0.0,3.0,87,0.00,,,0.00,Wunderground v.1.15,2013-03-13 08:45:00,
2013-03-13 03:50:00,16.3,13.1,30.36,NW,318,0.0,1.0,87,0.00,,,0.00,Wunderground v.1.15,2013-03-13 08:50:00,
2013-03-13 03:55:00,16.2,13.0,30.36,NW,318,2.0,2.0,87,0.00,,,0.00,Wunderground v.1.15,2013-03-13 08:55:00,
2013-03-13 03:56:00,16.2,13.0,30.36,NW,318,1.0,2.0,87,0.00,,,0.00,Wunderground v.1.15,2013-03-13 08:56:00,
2013-03-13 04:00:00,16.1,12.9,30.36,NW,318,0.0,1.0,87,0.00,,,0.00,Wunderground v.1.15,2013-03-13 09:00:00,
2013-03-13 04:01:00,16.0,12.8,30.36,NW,318,0.0,1.0,87,0.00,,,0.00,Wunderground v.1.15,2013-03-13 09:01:00,
2013-03-13 04:02:00,16.0,12.8,30.36,NW,318,0.0,1.0,87,0.00,,,0.00,Wunderground v.1.15,2013-03-13 09:02:00,
2013-03-13 04:05:00,15.9,13.0,30.36,NW,318,0.0,2.0,88,0.00,,,0.00,Wunderground v.1.15,2013-03-13 09:05:00,
2013-03-13 04:06:00,15.9,13.0,30.36,NW,318,0.0,2.0,88,0.00,,,0.00,Wunderground v.1.15,2013-03-13 09:06:00,
2013-03-13 04:07:00,16.0,13.1,30.36,NW,318,0.0,2.0,88,0.00,,,0.00,Wunderground v.1.15,2013-03-13 09:07:00,
2013-03-13 04:11:00,15.9,13.0,30.36,NW,318,1.0,1.0,88,0.00,,,0.00,Wunderground v.1.15,2013-03-13 09:11:00,
2013-03-13 04:12:00,15.9,13.0,30.36,NW,318,0.0,2.0,88,0.00,,,0.00,Wunderground v.1.15,2013-03-13 09:12:00,
2013-03-13 04:13:00,15.9,13.0,30.36,NW,306,0.0,2.0,88,0.00,,,0.00,Wunderground v.1.15,2013-03-13 09:13:00,
2013-03-13 04:16:00,15.9,13.0,30.36,NW,306,2.0,2.0,88,0.00,,,0.00,Wunderground v.1.15,2013-03-13 09:16:00,
2013-03-13 04:17:00,15.9,13.0,30.36,NW,306,0.0,2.0,88,0.00,,,0.00,Wunderground v.1.15,2013-03-13 09:17:00,
2013-03-13 04:18:00,15.9,13.0,30.36,NW,306,0.0,2.0,88,0.00,,,0.00,Wunderground v.1.15,2013-03-13 09:18:00,
2013-03-13 04:22:00,15.8,12.9,30.36,NW,306,1.0,2.0,88,0.00,,,0.00,Wunderground v.1.15,2013-03-13 09:22:00,
2013-03-13 04:23:00,15.8,12.9,30.36,NW,306,0.0,2.0,88,0.00,,,0.00,Wunderground v.1.15,2013-03-13 09:23:00,
2013-03-13 04:24:00,15.8,12.9,30.36,NW,306,0.0,2.0,88,0.00,,,0.00,Wunderground v.1.15,2013-03-13 09:24:00,
2013-03-13 04:27:00,15.8,12.9,30.36,NW,306,0.0,2.0,88,0.00,,,0.00,Wunderground v.1.15,2013-03-13 09:27:00,
2013-03-13 04:28:00,15.8,12.9,30.36,NW,306,0.0,2.0,88,0.00,,,0.00,Wunderground v.1.15,2013-03-13 09:28:00,
2013-03-13 04:29:00,15.8,12.9,30.36,NW,306,0.0,2.0,88,0.00,,,0.00,Wunderground v.1.15,2013-03-13 09:29:00,
2013-03-13 04:33:00,15.7,12.8,30.36,NW,306,0.0,2.0,88,0.00,,,0.00,Wunderground v.1.15,2013-03-13 09:33:00,
2013-03-13 04:34:00,15.7,12.8,30.36,NW,306,0.0,2.0,88,0.00,,,0.00,Wunderground v.1.15,2013-03-13 09:34:00,
2013-03-13 04:38:00,15.6,12.7,30.37,NW,306,1.0,2.0,88,0.00,,,0.00,Wunderground v.1.15,2013-03-13 09:38:00,
2013-03-13 04:39:00,15.6,12.7,30.37,NW,306,1.0,2.0,88,0.00,,,0.00,Wunderground v.1.15,2013-03-13 09:39:00,
2013-03-13 04:43:00,15.5,12.6,30.37,NW,306,1.0,2.0,88,0.00,,,0.00,Wunderground v.1.15,2013-03-13 09:43:00,
2013-03-13 04:44:00,15.5,12.6,30.37,NW,306,2.0,2.0,88,0.00,,,0.00,Wunderground v.1.15,2013-03-13 09:44:00,
2013-03-13 04:48:00,15.3,12.4,30.37,NW,306,0.0,2.0,88,0.00,,,0.00,Wunderground v.1.15,2013-03-13 09:48:00,
2013-03-13 04:49:00,15.3,12.4,30.37,NW,306,0.0,2.0,88,0.00,,,0.00,Wunderground v.1.15,2013-03-13 09:49:00,
2013-03-13 04:54:00,15.2,12.3,30.37,NW,306,0.0,1.0,88,0.00,,,0.00,Wunderground v.1.15,2013-03-13 09:54:00,
2013-03-13 04:55:00,15.2,12.3,30.37,NW,306,0.0,1.0,88,0.00,,,0.00,Wunderground v.1.15,2013-03-13 09:55:00,
2013-03-13 04:59:00,15.1,12.2,30.38,NW,306,0.0,2.0,88,0.00,,,0.00,Wunderground v.1.15,2013-03-13 09:59:00,
2013-03-13 05:00:00,15.1,12.2,30.38,NW,306,0.0,1.0,88,0.00,,,0.00,Wunderground v.1.15,2013-03-13 10:00:00,
2013-03-13 05:04:00,15.2,12.5,30.38,NW,306,1.0,1.0,89,0.00,,,0.00,Wunderground v.1.15,2013-03-13 10:04:00,
2013-03-13 05:06:00,15.2,12.5,30.38,NW,306,0.0,1.0,89,0.00,,,0.00,Wunderground v.1.15,2013-03-13 10:06:00,
2013-03-13 05:09:00,15.3,12.6,30.38,NW,306,0.0,2.0,89,0.00,,,0.00,Wunderground v.1.15,2013-03-13 10:09:00,
2013-03-13 05:11:00,15.2,12.3,30.38,NW,306,0.0,1.0,88,0.00,,,0.00,Wunderground v.1.15,2013-03-13 10:11:00,
2013-03-13 05:14:00,15.2,12.3,30.38,NW,306,0.0,2.0,88,0.00,,,0.00,Wunderground v.1.15,2013-03-13 10:14:00,
2013-03-13 05:16:00,15.1,12.2,30.38,NW,306,1.0,2.0,88,0.00,,,0.00,Wunderground v.1.15,2013-03-13 10:16:00,
2013-03-13 05:19:00,15.1,12.2,30.39,NW,306,0.0,2.0,88,0.00,,,0.00,Wunderground v.1.15,2013-03-13 10:19:00,
2013-03-13 05:21:00,15.1,12.2,30.39,NW,306,0.0,1.0,88,0.00,,,0.00,Wunderground v.1.15,2013-03-13 10:21:00,
2013-03-13 05:25:00,15.0,12.1,30.39,NW,306,1.0,1.0,88,0.00,,,0.00,Wunderground v.1.15,2013-03-13 10:25:00,
2013-03-13 05:27:00,15.0,12.1,30.39,NW,306,2.0,2.0,88,0.00,,,0.00,Wunderground v.1.15,2013-03-13 10:27:00,
2013-03-13 05:30:00,15.0,12.1,30.39,NW,306,0.0,1.0,88,0.00,,,0.00,Wunderground v.1.15,2013-03-13 10:30:00,
2013-03-13 05:32:00,14.9,12.0,30.39,NW,306,0.0,1.0,88,0.00,,,0.00,Wunderground v.1.15,2013-03-13 10:32:00,
2013-03-13 05:35:00,14.9,12.0,30.39,NW,306,0.0,1.0,88,0.00,,,0.00,Wunderground v.1.15,2013-03-13 10:35:00,
2013-03-13 05:37:00,14.8,11.9,30.39,NW,306,1.0,2.0,88,0.00,,,0.00,Wunderground v.1.15,2013-03-13 10:37:00,
2013-03-13 05:40:00,14.7,11.8,30.39,NW,306,1.0,1.0,88,0.00,,,0.00,Wunderground v.1.15,2013-03-13 10:40:00,
2013-03-13 05:42:00,14.7,11.8,30.39,NW,306,0.0,2.0,88,0.00,,,0.00,Wunderground v.1.15,2013-03-13 10:42:00,
2013-03-13 05:45:00,14.6,11.7,30.40,NW,306,0.0,2.0,88,0.00,,,0.00,Wunderground v.1.15,2013-03-13 10:45:00,
2013-03-13 05:48:00,14.5,11.6,30.40,NW,306,0.0,2.0,88,0.00,,,0.00,Wunderground v.1.15,2013-03-13 10:48:00,
2013-03-13 05:50:00,14.5,11.6,30.40,NW,306,1.0,1.0,88,0.00,,,0.00,Wunderground v.1.15,2013-03-13 10:50:00,
2013-03-13 05:51:00,14.4,11.5,30.40,NW,306,1.0,1.0,88,0.00,,,0.00,Wunderground v.1.15,2013-03-13 10:51:00,
2013-03-13 05:53:00,14.4,11.5,30.40,NW,306,1.0,1.0,88,0.00,,,0.00,Wunderground v.1.15,2013-03-13 10:53:00,
2013-03-13 05:55:00,14.4,11.8,30.40,NW,306,1.0,2.0,89,0.00,,,0.00,Wunderground v.1.15,2013-03-13 10:55:00,
2013-03-13 05:57:00,14.4,11.8,30.40,NW,306,0.0,2.0,89,0.00,,,0.00,Wunderground v.1.15,2013-03-13 10:57:00,
2013-03-13 05:58:00,14.3,11.4,30.40,NW,306,0.0,2.0,88,0.00,,,0.00,Wunderground v.1.15,2013-03-13 10:58:00,
2013-03-13 06:00:00,14.3,11.7,30.40,NW,306,1.0,1.0,89,0.00,,,0.00,Wunderground v.1.15,2013-03-13 11:00:00,
2013-03-13 06:02:00,14.3,11.4,30.40,NW,306,0.0,1.0,88,0.00,,,0.00,Wunderground v.1.15,2013-03-13 11:02:00,
2013-03-13 06:04:00,14.3,11.4,30.40,NW,306,1.0,2.0,88,0.00,,,0.00,Wunderground v.1.15,2013-03-13 11:04:00,
2013-03-13 06:05:00,14.2,11.6,30.40,NW,306,0.0,2.0,89,0.00,,,0.00,Wunderground v.1.15,2013-03-13 11:05:00,
2013-03-13 06:07:00,14.2,11.6,30.40,NW,306,0.0,2.0,89,0.00,,,0.00,Wunderground v.1.15,2013-03-13 11:07:00,
2013-03-13 06:08:00,14.2,11.6,30.40,NW,306,0.0,2.0,89,0.00,,,0.00,Wunderground v.1.15,2013-03-13 11:08:00,
2013-03-13 06:09:00,14.2,11.6,30.40,NW,306,0.0,2.0,89,0.00,,,0.00,Wunderground v.1.15,2013-03-13 11:09:00,
2013-03-13 06:10:00,14.1,11.5,30.40,NW,306,0.0,0.0,89,0.00,,,0.00,Wunderground v.1.15,2013-03-13 11:10:00,
2013-03-13 06:12:00,14.1,11.5,30.41,NW,306,1.0,1.0,89,0.00,,,0.00,Wunderground v.1.15,2013-03-13 11:12:00,
2013-03-13 06:13:00,14.1,11.5,30.41,NW,306,1.0,1.0,89,0.00,,,0.00,Wunderground v.1.15,2013-03-13 11:13:00,
2013-03-13 06:14:00,14.1,11.5,30.40,NW,306,1.0,1.0,89,0.00,,,0.00,Wunderground v.1.15,2013-03-13 11:14:00,
2013-03-13 06:15:00,14.1,11.5,30.40,NW,306,1.0,1.0,89,0.00,,,0.00,Wunderground v.1.15,2013-03-13 11:15:00,
2013-03-13 06:18:00,13.9,11.3,30.40,NW,306,0.0,1.0,89,0.00,,,0.00,Wunderground v.1.15,2013-03-13 11:18:00,
2013-03-13 06:19:00,13.9,11.3,30.40,NW,306,0.0,1.0,89,0.00,,,0.00,Wunderground v.1.15,2013-03-13 11:19:00,
2013-03-13 06:20:00,13.9,11.3,30.40,NW,306,1.0,1.0,89,0.00,,,0.00,Wunderground v.1.15,2013-03-13 11:20:00,
2013-03-13 06:23:00,13.9,11.3,30.40,NW,306,0.0,1.0,89,0.00,,,0.00,Wunderground v.1.15,2013-03-13 11:23:00,
2013-03-13 06:24:00,13.9,11.3,30.40,NW,306,0.0,1.0,89,0.00,,,0.00,Wunderground v.1.15,2013-03-13 11:24:00,
2013-03-13 06:25:00,13.9,11.3,30.41,NW,306,0.0,1.0,89,0.00,,,0.00,Wunderground v.1.15,2013-03-13 11:25:00,
2013-03-13 06:28:00,13.9,11.3,30.41,NW,306,0.0,1.0,89,0.00,,,0.00,Wunderground v.1.15,2013-03-13 11:28:00,
2013-03-13 06:29:00,13.8,11.2,30.41,NW,306,0.0,1.0,89,0.00,,,0.00,Wunderground v.1.15,2013-03-13 11:29:00,
2013-03-13 06:31:00,13.8,11.2,30.41,NW,306,0.0,0.0,89,0.00,,,0.00,Wunderground v.1.15,2013-03-13 11:31:00,
2013-03-13 06:33:00,13.8,11.2,30.41,NW,306,0.0,1.0,89,0.00,,,0.00,Wunderground v.1.15,2013-03-13 11:33:00,
2013-03-13 06:34:00,13.8,11.2,30.41,NW,306,0.0,1.0,89,0.00,,,0.00,Wunderground v.1.15,2013-03-13 11:34:00,
2013-03-13 06:36:00,13.8,11.2,30.41,NW,306,0.0,1.0,89,0.00,,,0.00,Wunderground v.1.15,2013-03-13 11:36:00,
2013-03-13 06:38:00,13.8,11.2,30.41,NW,306,0.0,1.0,89,0.00,,,0.00,Wunderground v.1.15,2013-03-13 11:38:00,
2013-03-13 06:39:00,13.8,11.2,30.41,NW,306,0.0,1.0,89,0.00,,,0.00,Wunderground v.1.15,2013-03-13 11:39:00,
2013-03-13 06:41:00,13.8,11.2,30.41,NW,306,0.0,0.0,89,0.00,,,0.00,Wunderground v.1.15,2013-03-13 11:41:00,
2013-03-13 06:43:00,13.8,11.2,30.41,NW,306,0.0,0.0,89,0.00,,,0.00,Wunderground v.1.15,2013-03-13 11:43:00,
2013-03-13 06:45:00,13.9,11.5,30.41,NW,306,0.0,0.0,90,0.00,,,0.00,Wunderground v.1.15,2013-03-13 11:45:00,
2013-03-13 06:46:00,13.9,11.5,30.41,NW,306,0.0,0.0,90,0.00,,,0.00,Wunderground v.1.15,2013-03-13 11:46:00,
2013-03-13 06:48:00,13.9,11.5,30.41,NW,306,0.0,0.0,90,0.00,,,0.00,Wunderground v.1.15,2013-03-13 11:48:00,
2013-03-13 06:49:00,13.9,11.5,30.41,NW,306,0.0,0.0,90,0.00,,,0.00,Wunderground v.1.15,2013-03-13 11:49:00,
2013-03-13 06:51:00,14.0,11.6,30.41,NW,306,0.0,0.0,90,0.00,,,0.00,Wunderground v.1.15,2013-03-13 11:51:00,
2013-03-13 06:54:00,14.0,11.6,30.41,NW,306,0.0,1.0,90,0.00,,,0.00,Wunderground v.1.15,2013-03-13 11:54:00,
2013-03-13 06:56:00,14.0,11.6,30.41,NW,306,0.0,1.0,90,0.00,,,0.00,Wunderground v.1.15,2013-03-13 11:56:00,
2013-03-13 06:57:00,14.1,11.7,30.41,NW,306,0.0,1.0,90,0.00,,,0.00,Wunderground v.1.15,2013-03-13 11:57:00,
2013-03-13 06:59:00,14.0,11.6,30.41,NW,306,0.0,1.0,90,0.00,,,0.00,Wunderground v.1.15,2013-03-13 11:59:00,
2013-03-13 07:01:00,14.1,11.7,30.41,NW,306,0.0,0.0,90,0.00,,,0.00,Wunderground v.1.15,2013-03-13 12:01:00,
2013-03-13 07:02:00,14.0,11.6,30.41,NW,306,0.0,0.0,90,0.00,,,0.00,Wunderground v.1.15,2013-03-13 12:02:00,
2013-03-13 07:04:00,14.0,11.6,30.41,NW,306,0.0,0.0,90,0.00,,,0.00,Wunderground v.1.15,2013-03-13 12:04:00,
2013-03-13 07:05:00,14.0,11.6,30.41,NW,306,0.0,0.0,90,0.00,,,0.00,Wunderground v.1.15,2013-03-13 12:05:00,
2013-03-13 07:07:00,14.0,11.6,30.41,NW,306,0.0,0.0,90,0.00,,,0.00,Wunderground v.1.15,2013-03-13 12:07:00,
2013-03-13 07:08:00,14.0,11.6,30.41,NW,306,0.0,0.0,90,0.00,,,0.00,Wunderground v.1.15,2013-03-13 12:08:00,
2013-03-13 07:09:00,14.0,11.6,30.41,NW,306,0.0,0.0,90,0.00,,,0.00,Wunderground v.1.15,2013-03-13 12:09:00,
2013-03-13 07:10:00,14.0,11.6,30.41,NW,306,0.0,0.0,90,0.00,,,0.00,Wunderground v.1.15,2013-03-13 12:10:00,
2013-03-13 07:13:00,13.9,11.5,30.41,NW,306,0.0,0.0,90,0.00,,,0.00,Wunderground v.1.15,2013-03-13 12:13:00,
2013-03-13 07:14:00,13.9,11.5,30.41,NW,306,0.0,0.0,90,0.00,,,0.00,Wunderground v.1.15,2013-03-13 12:14:00,
2013-03-13 07:15:00,13.9,11.5,30.41,NW,306,0.0,0.0,90,0.00,,,0.00,Wunderground v.1.15,2013-03-13 12:15:00,
2013-03-13 07:18:00,13.9,11.5,30.41,NW,306,0.0,0.0,90,0.00,,,0.00,Wunderground v.1.15,2013-03-13 12:18:00,
2013-03-13 07:19:00,14.0,11.6,30.41,NW,306,0.0,0.0,90,0.00,,,0.00,Wunderground v.1.15,2013-03-13 12:19:00,
2013-03-13 07:20:00,14.0,11.6,30.41,NW,306,0.0,0.0,90,0.00,,,0.00,Wunderground v.1.15,2013-03-13 12:20:00,
2013-03-13 07:23:00,13.9,11.5,30.41,NW,306,0.0,0.0,90,0.00,,,0.00,Wunderground v.1.15,2013-03-13 12:23:00,
2013-03-13 07:24:00,13.9,11.5,30.41,NW,306,0.0,1.0,90,0.00,,,0.00,Wunderground v.1.15,2013-03-13 12:24:00,
2013-03-13 07:26:00,14.0,11.6,30.41,NW,306,0.0,2.0,90,0.00,,,0.00,Wunderground v.1.15,2013-03-13 12:26:00,
2013-03-13 07:28:00,14.1,11.7,30.41,NW,306,0.0,2.0,90,0.00,,,0.00,Wunderground v.1.15,2013-03-13 12:28:00,
2013-03-13 07:29:00,14.1,11.7,30.41,NW,306,0.0,2.0,90,0.00,,,0.00,Wunderground v.1.15,2013-03-13 12:29:00,
2013-03-13 07:31:00,14.1,11.7,30.41,NW,306,1.0,1.0,90,0.00,,,0.00,Wunderground v.1.15,2013-03-13 12:31:00,
2013-03-13 07:34:00,14.4,12.0,30.41,NW,306,1.0,2.0,90,0.00,,,0.00,Wunderground v.1.15,2013-03-13 12:34:00,
2013-03-13 07:35:00,14.4,12.0,30.41,NW,306,0.0,2.0,90,0.00,,,0.00,Wunderground v.1.15,2013-03-13 12:35:00,
2013-03-13 07:36:00,14.5,12.1,30.41,NW,306,0.0,2.0,90,0.00,,,0.00,Wunderground v.1.15,2013-03-13 12:36:00,
2013-03-13 07:39:00,14.6,12.2,30.41,NW,306,0.0,2.0,90,0.00,,,0.00,Wunderground v.1.15,2013-03-13 12:39:00,
2013-03-13 07:40:00,14.6,12.2,30.41,NW,306,0.0,0.0,90,0.00,,,0.00,Wunderground v.1.15,2013-03-13 12:40:00,
2013-03-13 07:41:00,14.6,12.2,30.41,NW,306,0.0,0.0,90,0.00,,,0.00,Wunderground v.1.15,2013-03-13 12:41:00,
2013-03-13 07:44:00,14.6,12.2,30.41,NW,306,0.0,0.0,90,0.00,,,0.00,Wunderground v.1.15,2013-03-13 12:44:00,
2013-03-13 07:45:00,14.6,11.9,30.41,NW,306,0.0,0.0,89,0.00,,,0.00,Wunderground v.1.15,2013-03-13 12:45:00,
2013-03-13 07:46:00,14.6,11.9,30.41,NW,306,0.0,1.0,89,0.00,,,0.00,Wunderground v.1.15,2013-03-13 12:46:00,
2013-03-13 07:50:00,14.6,11.9,30.41,NW,306,0.0,0.0,89,0.00,,,0.00,Wunderground v.1.15,2013-03-13 12:50:00,
2013-03-13 07:52:00,14.6,11.9,30.41,NW,306,0.0,0.0,89,0.00,,,0.00,Wunderground v.1.15,2013-03-13 12:52:00,
2013-03-13 07:55:00,14.4,11.8,30.42,NW,306,1.0,1.0,89,0.00,,,0.00,Wunderground v.1.15,2013-03-13 12:55:00,
2013-03-13 07:57:00,14.4,11.8,30.42,NW,306,0.0,1.0,89,0.00,,,0.00,Wunderground v.1.15,2013-03-13 12:57:00,
2013-03-13 08:00:00,14.3,11.7,30.42,NW,306,0.0,1.0,89,0.00,,,0.00,Wunderground v.1.15,2013-03-13 13:00:00,
2013-03-13 08:01:00,14.2,11.6,30.42,NW,306,0.0,1.0,89,0.00,,,0.00,Wunderground v.1.15,2013-03-13 13:01:00,
2013-03-13 08:03:00,14.2,11.6,30.42,NW,306,0.0,1.0,89,0.00,,,0.00,Wunderground v.1.15,2013-03-13 13:03:00,
2013-03-13 08:05:00,14.1,11.5,30.42,NW,306,0.0,1.0,89,0.00,,,0.00,Wunderground v.1.15,2013-03-13 13:05:00,
2013-03-13 08:06:00,14.1,11.5,30.42,NW,306,1.0,1.0,89,0.00,,,0.00,Wunderground v.1.15,2013-03-13 13:06:00,
2013-03-13 08:08:00,14.1,11.5,30.42,NW,306,1.0,1.0,89,0.00,,,0.00,Wunderground v.1.15,2013-03-13 13:08:00,
2013-03-13 08:10:00,14.1,11.5,30.43,NW,306,0.0,1.0,89,0.00,,,0.00,Wunderground v.1.15,2013-03-13 13:10:00,
2013-03-13 08:12:00,14.1,11.5,30.43,NW,306,0.0,1.0,89,0.00,,,0.00,Wunderground v.1.15,2013-03-13 13:12:00,
2013-03-13 08:13:00,14.1,11.5,30.43,NW,306,0.0,1.0,89,0.00,,,0.00,Wunderground v.1.15,2013-03-13 13:13:00,
2013-03-13 08:16:00,14.2,11.6,30.43,NW,306,1.0,1.0,89,0.00,,,0.00,Wunderground v.1.15,2013-03-13 13:16:00,
2013-03-13 08:17:00,14.2,11.6,30.43,NW,306,0.0,1.0,89,0.00,,,0.00,Wunderground v.1.15,2013-03-13 13:17:00,
2013-03-13 08:18:00,14.3,11.7,30.43,NW,306,0.0,1.0,89,0.00,,,0.00,Wunderground v.1.15,2013-03-13 13:18:00,
2013-03-13 08:21:00,14.3,11.7,30.43,NW,306,0.0,0.0,89,0.00,,,0.00,Wunderground v.1.15,2013-03-13 13:21:00,
2013-03-13 08:22:00,14.4,11.8,30.43,NW,306,0.0,0.0,89,0.00,,,0.00,Wunderground v.1.15,2013-03-13 13:22:00,
2013-03-13 08:24:00,14.4,11.8,30.43,NW,306,0.0,1.0,89,0.00,,,0.00,Wunderground v.1.15,2013-03-13 13:24:00,
2013-03-13 08:27:00,14.6,11.9,30.43,NW,306,2.0,2.0,89,0.00,,,0.00,Wunderground v.1.15,2013-03-13 13:27:00,
2013-03-13 08:29:00,14.8,12.1,30.43,NW,306,0.0,2.0,89,0.00,,,0.00,Wunderground v.1.15,2013-03-13 13:29:00,
2013-03-13 08:33:00,14.9,12.2,30.43,NW,306,0.0,1.0,89,0.00,,,0.00,Wunderground v.1.15,2013-03-13 13:33:00,
2013-03-13 08:34:00,15.0,12.3,30.43,NW,306,0.0,1.0,89,0.00,,,0.00,Wunderground v.1.15,2013-03-13 13:34:00,
2013-03-13 08:38:00,15.2,12.5,30.43,NW,306,0.0,1.0,89,0.00,,,0.00,Wunderground v.1.15,2013-03-13 13:38:00,
2013-03-13 08:39:00,15.2,12.5,30.43,NW,306,2.0,2.0,89,0.00,,,0.00,Wunderground v.1.15,2013-03-13 13:39:00,
2013-03-13 08:43:00,15.4,12.7,30.43,NW,306,2.0,2.0,89,0.00,,,0.00,Wunderground v.1.15,2013-03-13 13:43:00,
2013-03-13 08:44:00,15.4,12.7,30.43,NW,306,1.0,2.0,89,0.00,,,0.00,Wunderground v.1.15,2013-03-13 13:44:00,
2013-03-13 08:45:00,15.5,12.8,30.43,NW,306,0.0,2.0,89,0.00,,,0.00,Wunderground v.1.15,2013-03-13 13:45:00,
2013-03-13 08:48:00,15.7,13.0,30.43,NW,306,0.0,2.0,89,0.00,,,0.00,Wunderground v.1.15,2013-03-13 13:48:00,
2013-03-13 08:49:00,15.7,13.0,30.43,NW,306,0.0,2.0,89,0.00,,,0.00,Wunderground v.1.15,2013-03-13 13:49:00,
2013-03-13 08:50:00,15.8,13.1,30.43,NW,306,1.0,1.0,89,0.00,,,0.00,Wunderground v.1.15,2013-03-13 13:50:00,
2013-03-13 08:53:00,15.9,13.2,30.43,NW,306,1.0,2.0,89,0.00,,,0.00,Wunderground v.1.15,2013-03-13 13:53:00,
2013-03-13 08:54:00,16.0,13.3,30.43,NW,306,1.0,2.0,89,0.00,,,0.00,Wunderground v.1.15,2013-03-13 13:54:00,
2013-03-13 08:55:00,16.0,13.3,30.43,NW,306,1.0,2.0,89,0.00,,,0.00,Wunderground v.1.15,2013-03-13 13:55:00,
2013-03-13 08:58:00,16.1,13.4,30.43,NW,306,0.0,2.0,89,0.00,,,0.00,Wunderground v.1.15,2013-03-13 13:58:00,
2013-03-13 08:59:00,16.2,13.5,30.44,NW,306,1.0,2.0,89,0.00,,,0.00,Wunderground v.1.15,2013-03-13 13:59:00,
2013-03-13 09:00:00,16.2,13.5,30.44,NW,306,0.0,2.0,89,0.00,,,0.00,Wunderground v.1.15,2013-03-13 14:00:00,
2013-03-13 09:03:00,16.4,13.5,30.44,NW,306,1.0,2.0,88,0.00,,,0.00,Wunderground v.1.15,2013-03-13 14:03:00,
2013-03-13 09:05:00,16.5,13.8,30.44,NW,306,0.0,2.0,89,0.00,,,0.00,Wunderground v.1.15,2013-03-13 14:05:00,
2013-03-13 09:06:00,16.6,13.7,30.44,NW,306,1.0,2.0,88,0.00,,,0.00,Wunderground v.1.15,2013-03-13 14:06:00,
2013-03-13 09:09:00,16.8,13.9,30.44,NW,306,1.0,2.0,88,0.00,,,0.00,Wunderground v.1.15,2013-03-13 14:09:00,
2013-03-13 09:10:00,16.9,14.0,30.44,NW,306,0.0,1.0,88,0.00,,,0.00,Wunderground v.1.15,2013-03-13 14:10:00,
2013-03-13 09:11:00,17.0,14.1,30.44,NW,306,1.0,2.0,88,0.00,,,0.00,Wunderground v.1.15,2013-03-13 14:11:00,
2013-03-13 09:12:00,17.0,14.1,30.44,NW,306,0.0,2.0,88,0.00,,,0.00,Wunderground v.1.15,2013-03-13 14:12:00,
2013-03-13 09:14:00,17.2,14.3,30.44,NW,306,0.0,2.0,88,0.00,,,0.00,Wunderground v.1.15,2013-03-13 14:14:00,
2013-03-13 09:15:00,17.3,14.4,30.44,NW,306,0.0,2.0,88,0.00,,,0.00,Wunderground v.1.15,2013-03-13 14:15:00,
2013-03-13 09:17:00,17.4,14.5,30.44,NW,306,0.0,2.0,88,0.00,,,0.00,Wunderground v.1.15,2013-03-13 14:17:00,
2013-03-13 09:19:00,17.5,14.3,30.44,NW,306,0.0,2.0,87,0.00,,,0.00,Wunderground v.1.15,2013-03-13 14:19:00,
2013-03-13 09:21:00,17.6,14.4,30.44,NW,306,0.0,0.0,87,0.00,,,0.00,Wunderground v.1.15,2013-03-13 14:21:00,
2013-03-13 09:22:00,17.7,14.5,30.44,NW,306,0.0,1.0,87,0.00,,,0.00,Wunderground v.1.15,2013-03-13 14:22:00,
2013-03-13 09:24:00,17.8,14.6,30.44,NW,306,0.0,1.0,87,0.00,,,0.00,Wunderground v.1.15,2013-03-13 14:24:00,
2013-03-13 09:26:00,17.9,14.7,30.44,NW,306,0.0,1.0,87,0.00,,,0.00,Wunderground v.1.15,2013-03-13 14:26:00,
2013-03-13 09:27:00,18.0,14.8,30.44,NW,306,2.0,2.0,87,0.00,,,0.00,Wunderground v.1.15,2013-03-13 14:27:00,
2013-03-13 09:28:00,18.0,14.8,30.44,NW,306,1.0,2.0,87,0.00,,,0.00,Wunderground v.1.15,2013-03-13 14:28:00,
2013-03-13 09:29:00,18.1,14.9,30.44,NW,306,1.0,3.0,87,0.00,,,0.00,Wunderground v.1.15,2013-03-13 14:29:00,
2013-03-13 09:31:00,18.1,14.6,30.44,NW,306,0.0,1.0,86,0.00,,,0.00,Wunderground v.1.15,2013-03-13 14:31:00,
2013-03-13 09:32:00,18.2,15.0,30.44,NW,306,1.0,1.0,87,0.00,,,0.00,Wunderground v.1.15,2013-03-13 14:32:00,
2013-03-13 09:33:00,18.2,15.0,30.45,NW,306,2.0,2.0,87,0.00,,,0.00,Wunderground v.1.15,2013-03-13 14:33:00,
2013-03-13 09:34:00,18.3,14.8,30.45,NW,306,2.0,2.0,86,0.00,,,0.00,Wunderground v.1.15,2013-03-13 14:34:00,
2013-03-13 09:37:00,18.4,14.9,30.44,NW,306,0.0,2.0,86,0.00,,,0.00,Wunderground v.1.15,2013-03-13 14:37:00,
2013-03-13 09:38:00,18.4,14.9,30.44,NW,306,2.0,2.0,86,0.00,,,0.00,Wunderground v.1.15,2013-03-13 14:38:00,
2013-03-13 09:39:00,18.5,15.0,30.45,NW,306,1.0,3.0,86,0.00,,,0.00,Wunderground v.1.15,2013-03-13 14:39:00,
2013-03-13 09:42:00,18.5,15.0,30.45,NW,306,1.0,2.0,86,0.00,,,0.00,Wunderground v.1.15,2013-03-13 14:42:00,
2013-03-13 09:43:00,18.5,15.0,30.45,NW,306,1.0,2.0,86,0.00,,,0.00,Wunderground v.1.15,2013-03-13 14:43:00,
2013-03-13 09:44:00,18.6,15.1,30.45,NW,306,2.0,2.0,86,0.00,,,0.00,Wunderground v.1.15,2013-03-13 14:44:00,
2013-03-13 09:47:00,18.7,15.2,30.45,NW,306,0.0,2.0,86,0.00,,,0.00,Wunderground v.1.15,2013-03-13 14:47:00,
2013-03-13 09:48:00,18.7,15.2,30.45,NW,306,0.0,2.0,86,0.00,,,0.00,Wunderground v.1.15,2013-03-13 14:48:00,
2013-03-13 09:49:00,18.7,15.2,30.45,NW,306,0.0,2.0,86,0.00,,,0.00,Wunderground v.1.15,2013-03-13 14:49:00,
2013-03-13 09:53:00,18.9,15.4,30.45,NW,306,1.0,2.0,86,0.00,,,0.00,Wunderground v.1.15,2013-03-13 14:53:00,
2013-03-13 09:54:00,18.9,15.4,30.45,NW,306,3.0,3.0,86,0.00,,,0.00,Wunderground v.1.15,2013-03-13 14:54:00,
2013-03-13 09:55:00,18.9,15.4,30.45,NW,306,1.0,3.0,86,0.00,,,0.00,Wunderground v.1.15,2013-03-13 14:55:00,
2013-03-13 09:58:00,18.9,15.4,30.45,NW,306,2.0,3.0,86,0.00,,,0.00,Wunderground v.1.15,2013-03-13 14:58:00,
2013-03-13 09:59:00,18.9,15.1,30.45,NW,306,2.0,3.0,85,0.00,,,0.00,Wunderground v.1.15,2013-03-13 14:59:00,
2013-03-13 10:00:00,18.9,15.1,30.45,NW,306,1.0,2.0,85,0.00,,,0.00,Wunderground v.1.15,2013-03-13 15:00:00,
2013-03-13 10:03:00,18.9,15.1,30.46,WNW,298,1.0,4.0,85,0.00,,,0.00,Wunderground v.1.15,2013-03-13 15:03:00,
2013-03-13 10:04:00,18.9,15.1,30.46,WNW,298,1.0,4.0,85,0.00,,,0.00,Wunderground v.1.15,2013-03-13 15:04:00,
2013-03-13 10:05:00,19.0,15.2,30.46,WNW,298,2.0,4.0,85,0.00,,,0.00,Wunderground v.1.15,2013-03-13 15:05:00,
2013-03-13 10:08:00,19.0,15.2,30.46,WNW,298,2.0,4.0,85,0.00,,,0.00,Wunderground v.1.15,2013-03-13 15:08:00,
2013-03-13 10:09:00,19.0,15.2,30.46,WNW,298,1.0,4.0,85,0.00,,,0.00,Wunderground v.1.15,2013-03-13 15:09:00,
2013-03-13 10:10:00,19.0,15.2,30.46,WNW,298,3.0,3.0,85,0.00,,,0.00,Wunderground v.1.15,2013-03-13 15:10:00,
2013-03-13 10:13:00,19.1,15.6,30.46,WNW,298,1.0,3.0,86,0.00,,,0.00,Wunderground v.1.15,2013-03-13 15:13:00,
2013-03-13 10:14:00,19.1,15.6,30.46,WNW,298,2.0,3.0,86,0.00,,,0.00,Wunderground v.1.15,2013-03-13 15:14:00,
2013-03-13 10:15:00,19.2,15.7,30.47,WNW,298,2.0,3.0,86,0.00,,,0.00,Wunderground v.1.15,2013-03-13 15:15:00,
2013-03-13 10:18:00,19.2,15.7,30.47,WNW,298,1.0,3.0,86,0.00,,,0.00,Wunderground v.1.15,2013-03-13 15:18:00,
2013-03-13 10:19:00,19.3,15.8,30.47,WNW,298,1.0,3.0,86,0.00,,,0.00,Wunderground v.1.15,2013-03-13 15:19:00,
2013-03-13 10:22:00,19.4,15.9,30.47,WNW,298,2.0,3.0,86,0.00,,,0.00,Wunderground v.1.15,2013-03-13 15:22:00,
2013-03-13 10:24:00,19.4,18.0,30.47,West,276,4.0,4.0,94,0.00,,,0.00,Wunderground v.1.15,2013-03-13 15:24:00,
2013-03-13 10:25:00,19.4,15.9,30.47,West,276,3.0,4.0,86,0.00,,,0.00,Wunderground v.1.15,2013-03-13 15:25:00,
2013-03-13 10:27:00,19.4,15.9,30.47,West,276,3.0,4.0,86,0.00,,,0.00,Wunderground v.1.15,2013-03-13 15:27:00,
2013-03-13 10:29:00,19.4,15.6,30.47,West,276,2.0,4.0,85,0.00,,,0.00,Wunderground v.1.15,2013-03-13 15:29:00,
2013-03-13 10:31:00,19.5,16.0,30.47,West,276,2.0,2.0,86,0.00,,,0.00,Wunderground v.1.15,2013-03-13 15:31:00,
2013-03-13 10:32:00,19.5,16.0,30.47,West,276,2.0,2.0,86,0.00,,,0.00,Wunderground v.1.15,2013-03-13 15:32:00,
2013-03-13 10:34:00,19.6,15.8,30.47,West,276,3.0,3.0,85,0.00,,,0.00,Wunderground v.1.15,2013-03-13 15:34:00,
2013-03-13 10:37:00,19.7,15.9,30.47,West,275,4.0,4.0,85,0.00,,,0.00,Wunderground v.1.15,2013-03-13 15:37:00,
2013-03-13 10:38:00,19.7,15.9,30.47,West,275,1.0,4.0,85,0.00,,,0.00,Wunderground v.1.15,2013-03-13 15:38:00,
2013-03-13 10:39:00,19.7,16.2,30.48,West,275,3.0,4.0,86,0.00,,,0.00,Wunderground v.1.15,2013-03-13 15:39:00,
2013-03-13 10:42:00,19.8,16.3,30.47,West,275,2.0,3.0,86,0.00,,,0.00,Wunderground v.1.15,2013-03-13 15:42:00,
2013-03-13 10:43:00,19.9,16.4,30.47,West,275,2.0,3.0,86,0.00,,,0.00,Wunderground v.1.15,2013-03-13 15:43:00,
2013-03-13 10:45:00,20.0,16.5,30.47,West,275,1.0,3.0,86,0.00,,,0.00,Wunderground v.1.15,2013-03-13 15:45:00,
2013-03-13 10:48:00,20.0,16.2,30.48,West,275,4.0,4.0,85,0.00,,,0.00,Wunderground v.1.15,2013-03-13 15:48:00,
2013-03-13 10:50:00,20.1,16.6,30.48,West,275,2.0,3.0,86,0.00,,,0.00,Wunderground v.1.15,2013-03-13 15:50:00,
2013-03-13 10:53:00,20.2,16.7,30.47,West,275,2.0,3.0,86,0.00,,,0.00,Wunderground v.1.15,2013-03-13 15:53:00,
2013-03-13 10:55:00,20.3,16.8,30.47,West,275,1.0,3.0,86,0.00,,,0.00,Wunderground v.1.15,2013-03-13 15:55:00,
2013-03-13 10:58:00,20.3,16.5,30.48,West,275,2.0,3.0,85,0.00,,,0.00,Wunderground v.1.15,2013-03-13 15:58:00,
2013-03-13 10:59:00,20.4,16.6,30.47,West,275,1.0,3.0,85,0.00,,,0.00,Wunderground v.1.15,2013-03-13 15:59:00,
2013-03-13 11:01:00,20.5,17.0,30.48,West,275,1.0,3.0,86,0.00,,,0.00,Wunderground v.1.15,2013-03-13 16:01:00,
2013-03-13 11:03:00,20.6,16.8,30.47,West,275,0.0,3.0,85,0.00,,,0.00,Wunderground v.1.15,2013-03-13 16:03:00,
2013-03-13 11:04:00,20.7,17.2,30.48,West,275,3.0,3.0,86,0.00,,,0.00,Wunderground v.1.15,2013-03-13 16:04:00,
2013-03-13 11:07:00,20.8,17.0,30.48,West,275,1.0,3.0,85,0.00,,,0.00,Wunderground v.1.15,2013-03-13 16:07:00,
2013-03-13 11:08:00,20.9,17.1,30.47,West,275,0.0,3.0,85,0.00,,,0.00,Wunderground v.1.15,2013-03-13 16:08:00,
2013-03-13 11:09:00,20.9,17.1,30.47,West,275,0.0,3.0,85,0.00,,,0.00,Wunderground v.1.15,2013-03-13 16:09:00,
2013-03-13 11:12:00,21.1,17.0,30.47,West,275,2.0,2.0,84,0.00,,,0.00,Wunderground v.1.15,2013-03-13 16:12:00,
2013-03-13 11:13:00,21.1,16.7,30.48,West,275,1.0,2.0,83,0.00,,,0.00,Wunderground v.1.15,2013-03-13 16:13:00,
2013-03-13 11:14:00,21.1,16.7,30.47,West,275,2.0,2.0,83,0.00,,,0.00,Wunderground v.1.15,2013-03-13 16:14:00,
2013-03-13 11:17:00,21.2,17.1,30.47,West,275,2.0,3.0,84,0.00,,,0.00,Wunderground v.1.15,2013-03-13 16:17:00,
2013-03-13 11:18:00,21.2,17.1,30.47,West,275,0.0,3.0,84,0.00,,,0.00,Wunderground v.1.15,2013-03-13 16:18:00,
2013-03-13 11:19:00,21.3,17.2,30.47,West,275,2.0,3.0,84,0.00,,,0.00,Wunderground v.1.15,2013-03-13 16:19:00,
2013-03-13 11:22:00,21.3,17.2,30.47,West,275,2.0,3.0,84,0.00,,,0.00,Wunderground v.1.15,2013-03-13 16:22:00,
2013-03-13 11:23:00,21.4,17.3,30.47,West,275,1.0,3.0,84,0.00,,,0.00,Wunderground v.1.15,2013-03-13 16:23:00,
2013-03-13 11:24:00,21.5,17.4,30.47,West,275,2.0,3.0,84,0.00,,,0.00,Wunderground v.1.15,2013-03-13 16:24:00,
2013-03-13 11:27:00,21.5,17.1,30.47,West,275,1.0,3.0,83,0.00,,,0.00,Wunderground v.1.15,2013-03-13 16:27:00,
2013-03-13 11:29:00,21.6,17.2,30.47,West,275,0.0,3.0,83,0.00,,,0.00,Wunderground v.1.15,2013-03-13 16:29:00,
2013-03-13 11:32:00,21.8,17.7,30.47,West,275,2.0,2.0,84,0.00,,,0.00,Wunderground v.1.15,2013-03-13 16:32:00,
2013-03-13 11:33:00,21.8,17.4,30.47,West,275,3.0,3.0,83,0.00,,,0.00,Wunderground v.1.15,2013-03-13 16:33:00,
2013-03-13 11:34:00,21.8,17.4,30.47,West,275,0.0,3.0,83,0.00,,,0.00,Wunderground v.1.15,2013-03-13 16:34:00,
2013-03-13 11:35:00,21.8,17.2,30.47,West,275,2.0,3.0,82,0.00,,,0.00,Wunderground v.1.15,2013-03-13 16:35:00,
2013-03-13 11:37:00,21.8,17.4,30.47,West,275,2.0,3.0,83,0.00,,,0.00,Wunderground v.1.15,2013-03-13 16:37:00,
2013-03-13 11:38:00,21.9,17.5,30.47,West,275,2.0,3.0,83,0.00,,,0.00,Wunderground v.1.15,2013-03-13 16:38:00,
2013-03-13 11:40:00,21.9,17.8,30.47,West,275,0.0,2.0,84,0.00,,,0.00,Wunderground v.1.15,2013-03-13 16:40:00,
2013-03-13 11:42:00,22.0,17.9,30.47,West,275,1.0,2.0,84,0.00,,,0.00,Wunderground v.1.15,2013-03-13 16:42:00,
2013-03-13 11:43:00,22.1,18.0,30.47,West,275,0.0,3.0,84,0.00,,,0.00,Wunderground v.1.15,2013-03-13 16:43:00,
2013-03-13 11:45:00,22.2,18.1,30.47,West,275,2.0,3.0,84,0.00,,,0.00,Wunderground v.1.15,2013-03-13 16:45:00,
2013-03-13 11:47:00,22.3,17.9,30.47,West,275,2.0,3.0,83,0.00,,,0.00,Wunderground v.1.15,2013-03-13 16:47:00,
2013-03-13 11:48:00,22.3,17.9,30.47,West,275,2.0,4.0,83,0.00,,,0.00,Wunderground v.1.15,2013-03-13 16:48:00,
2013-03-13 11:50:00,22.3,17.9,30.47,West,275,3.0,3.0,83,0.00,,,0.00,Wunderground v.1.15,2013-03-13 16:50:00,
2013-03-13 11:53:00,22.4,18.3,30.47,West,275,0.0,3.0,84,0.00,,,0.00,Wunderground v.1.15,2013-03-13 16:53:00,
2013-03-13 11:54:00,22.5,18.1,30.47,West,275,2.0,3.0,83,0.00,,,0.00,Wunderground v.1.15,2013-03-13 16:54:00,
2013-03-13 11:55:00,22.5,18.1,30.47,West,275,2.0,3.0,83,0.00,,,0.00,Wunderground v.1.15,2013-03-13 16:55:00,
2013-03-13 11:56:00,22.5,18.1,30.47,West,275,2.0,3.0,83,0.00,,,0.00,Wunderground v.1.15,2013-03-13 16:56:00,
2013-03-13 11:58:00,22.6,18.2,30.47,West,275,2.0,3.0,83,0.00,,,0.00,Wunderground v.1.15,2013-03-13 16:58:00,
2013-03-13 12:00:00,22.7,18.3,30.47,West,275,2.0,2.0,83,0.00,,,0.00,Wunderground v.1.15,2013-03-13 17:00:00,
2013-03-13 12:02:00,22.7,18.3,30.47,West,275,2.0,3.0,83,0.00,,,0.00,Wunderground v.1.15,2013-03-13 17:02:00,
2013-03-13 12:04:00,22.8,18.4,30.48,West,275,3.0,3.0,83,0.00,,,0.00,Wunderground v.1.15,2013-03-13 17:04:00,
2013-03-13 12:05:00,22.8,18.4,30.47,West,275,2.0,3.0,83,0.00,,,0.00,Wunderground v.1.15,2013-03-13 17:05:00,
2013-03-13 12:07:00,22.8,18.1,30.47,West,275,1.0,3.0,82,0.00,,,0.00,Wunderground v.1.15,2013-03-13 17:07:00,
2013-03-13 12:09:00,22.8,18.4,30.48,West,275,2.0,3.0,83,0.00,,,0.00,Wunderground v.1.15,2013-03-13 17:09:00,
2013-03-13 12:10:00,22.9,18.5,30.48,West,275,2.0,2.0,83,0.00,,,0.00,Wunderground v.1.15,2013-03-13 17:10:00,
2013-03-13 12:12:00,23.0,18.6,30.47,West,275,0.0,3.0,83,0.00,,,0.00,Wunderground v.1.15,2013-03-13 17:12:00,
2013-03-13 12:14:00,23.2,18.8,30.47,West,275,1.0,3.0,83,0.00,,,0.00,Wunderground v.1.15,2013-03-13 17:14:00,
2013-03-13 12:15:00,23.2,18.8,30.47,West,275,1.0,3.0,83,0.00,,,0.00,Wunderground v.1.15,2013-03-13 17:15:00,
2013-03-13 12:17:00,23.2,18.5,30.47,West,275,1.0,3.0,82,0.00,,,0.00,Wunderground v.1.15,2013-03-13 17:17:00,
2013-03-13 12:20:00,23.4,18.7,30.47,West,275,0.0,1.0,82,0.00,,,0.00,Wunderground v.1.15,2013-03-13 17:20:00,
2013-03-13 12:21:00,23.4,18.7,30.47,West,275,1.0,2.0,82,0.00,,,0.00,Wunderground v.1.15,2013-03-13 17:21:00,
2013-03-13 12:22:00,23.5,18.8,30.47,West,275,1.0,2.0,82,0.00,,,0.00,Wunderground v.1.15,2013-03-13 17:22:00,
2013-03-13 12:25:00,23.7,18.7,30.47,West,275,1.0,3.0,81,0.00,,,0.00,Wunderground v.1.15,2013-03-13 17:25:00,
2013-03-13 12:27:00,23.8,18.8,30.47,West,275,0.0,3.0,81,0.00,,,0.00,Wunderground v.1.15,2013-03-13 17:27:00,
2013-03-13 12:31:00,24.3,19.0,30.47,West,275,1.0,2.0,80,0.00,,,0.00,Wunderground v.1.15,2013-03-13 17:31:00,
2013-03-13 12:32:00,24.3,19.0,30.47,West,275,2.0,2.0,80,0.00,,,0.00,Wunderground v.1.15,2013-03-13 17:32:00,
2013-03-13 12:37:00,24.3,18.7,30.47,West,275,0.0,3.0,79,0.00,,,0.00,Wunderground v.1.15,2013-03-13 17:37:00,
2013-03-13 12:42:00,24.8,19.8,30.47,West,275,1.0,2.0,81,0.00,,,0.00,Wunderground v.1.15,2013-03-13 17:42:00,
2013-03-13 12:47:00,25.2,19.6,30.47,West,275,0.0,2.0,79,0.00,,,0.00,Wunderground v.1.15,2013-03-13 17:47:00,
2013-03-13 12:48:00,25.3,19.7,30.47,West,275,0.0,2.0,79,0.00,,,0.00,Wunderground v.1.15,2013-03-13 17:48:00,
2013-03-13 12:52:00,25.6,19.7,30.46,West,275,0.0,0.0,78,0.00,,,0.00,Wunderground v.1.15,2013-03-13 17:52:00,
2013-03-13 12:53:00,25.7,19.8,30.46,West,275,0.0,0.0,78,0.00,,,0.00,Wunderground v.1.15,2013-03-13 17:53:00,
2013-03-13 12:57:00,25.8,19.3,30.46,West,275,0.0,3.0,76,0.00,,,0.00,Wunderground v.1.15,2013-03-13 17:57:00,
2013-03-13 12:58:00,25.7,19.2,30.46,West,275,2.0,3.0,76,0.00,,,0.00,Wunderground v.1.15,2013-03-13 17:58:00,
2013-03-13 12:59:00,25.7,19.2,30.46,West,275,0.0,3.0,76,0.00,,,0.00,Wunderground v.1.15,2013-03-13 17:59:00,
2013-03-13 13:03:00,25.7,19.2,30.46,West,275,0.0,2.0,76,0.00,,,0.00,Wunderground v.1.15,2013-03-13 18:03:00,
2013-03-13 13:05:00,26.1,19.6,30.47,West,275,0.0,2.0,76,0.00,,,0.00,Wunderground v.1.15,2013-03-13 18:05:00,
2013-03-13 13:08:00,26.5,20.6,30.47,West,275,0.0,2.0,78,0.00,,,0.00,Wunderground v.1.15,2013-03-13 18:08:00,
2013-03-13 13:09:00,26.5,20.6,30.47,West,275,0.0,2.0,78,0.00,,,0.00,Wunderground v.1.15,2013-03-13 18:09:00,
2013-03-13 13:10:00,26.5,20.6,30.47,West,275,0.0,0.0,78,0.00,,,0.00,Wunderground v.1.15,2013-03-13 18:10:00,
2013-03-13 13:13:00,27.7,20.5,30.46,West,275,0.0,0.0,74,0.00,,,0.00,Wunderground v.1.15,2013-03-13 18:13:00,
2013-03-13 13:14:00,27.7,20.5,30.46,West,275,0.0,0.0,74,0.00,,,0.00,Wunderground v.1.15,2013-03-13 18:14:00,
2013-03-13 13:15:00,27.8,20.3,30.46,West,275,0.0,1.0,73,0.00,,,0.00,Wunderground v.1.15,2013-03-13 18:15:00,
2013-03-13 13:18:00,28.0,20.8,30.46,South,190,2.0,3.0,74,0.00,,,0.00,Wunderground v.1.15,2013-03-13 18:18:00,
2013-03-13 13:19:00,27.9,20.4,30.46,South,190,1.0,3.0,73,0.00,,,0.00,Wunderground v.1.15,2013-03-13 18:19:00,
2013-03-13 13:20:00,27.9,20.0,30.46,South,190,1.0,1.0,72,0.00,,,0.00,Wunderground v.1.15,2013-03-13 18:20:00,
2013-03-13 13:24:00,27.5,19.7,30.46,South,190,3.0,3.0,72,0.00,,,0.00,Wunderground v.1.15,2013-03-13 18:24:00,
2013-03-13 13:25:00,27.2,19.4,30.46,South,190,1.0,3.0,72,0.00,,,0.00,Wunderground v.1.15,2013-03-13 18:25:00,
2013-03-13 13:29:00,27.0,19.5,30.46,South,190,1.0,3.0,73,0.00,,,0.00,Wunderground v.1.15,2013-03-13 18:29:00,
2013-03-13 13:31:00,26.8,19.3,30.46,South,190,1.0,3.0,73,0.00,,,0.00,Wunderground v.1.15,2013-03-13 18:31:00,
2013-03-13 13:34:00,26.6,19.7,30.46,SSE,163,4.0,4.0,75,0.00,,,0.00,Wunderground v.1.15,2013-03-13 18:34:00,
2013-03-13 13:36:00,26.5,19.3,30.46,SSE,163,2.0,4.0,74,0.00,,,0.00,Wunderground v.1.15,2013-03-13 18:36:00,
2013-03-13 13:37:00,26.5,19.6,30.46,SSE,163,2.0,4.0,75,0.00,,,0.00,Wunderground v.1.15,2013-03-13 18:37:00,
2013-03-13 13:39:00,26.5,19.3,30.46,SSE,163,2.0,5.0,74,0.00,,,0.00,Wunderground v.1.15,2013-03-13 18:39:00,
2013-03-13 13:40:00,26.5,19.3,30.46,SSE,163,1.0,2.0,74,0.00,,,0.00,Wunderground v.1.15,2013-03-13 18:40:00,
2013-03-13 13:41:00,26.6,19.4,30.46,SSE,163,2.0,4.0,74,0.00,,,0.00,Wunderground v.1.15,2013-03-13 18:41:00,
2013-03-13 13:42:00,26.6,19.1,30.46,SSE,163,1.0,4.0,73,0.00,,,0.00,Wunderground v.1.15,2013-03-13 18:42:00,
2013-03-13 13:44:00,26.6,19.1,30.46,SSE,163,4.0,5.0,73,0.00,,,0.00,Wunderground v.1.15,2013-03-13 18:44:00,
2013-03-13 13:45:00,26.8,19.6,30.46,SSE,163,2.0,5.0,74,0.00,,,0.00,Wunderground v.1.15,2013-03-13 18:45:00,
2013-03-13 13:47:00,27.1,19.9,30.46,SSE,163,1.0,5.0,74,0.00,,,0.00,Wunderground v.1.15,2013-03-13 18:47:00,
2013-03-13 13:49:00,27.3,19.8,30.46,SSW,199,2.0,2.0,73,0.00,,,0.00,Wunderground v.1.15,2013-03-13 18:49:00,
2013-03-13 13:51:00,27.4,20.2,30.46,South,182,2.0,4.0,74,0.00,,,0.00,Wunderground v.1.15,2013-03-13 18:51:00,
2013-03-13 13:52:00,27.4,20.2,30.46,South,182,2.0,4.0,74,0.00,,,0.00,Wunderground v.1.15,2013-03-13 18:52:00,
2013-03-13 13:54:00,27.5,20.6,30.46,South,184,2.0,4.0,75,0.00,,,0.00,Wunderground v.1.15,2013-03-13 18:54:00,
2013-03-13 13:57:00,27.6,20.7,30.45,South,174,5.0,6.0,75,0.00,,,0.00,Wunderground v.1.15,2013-03-13 18:57:00,
2013-03-13 13:58:00,27.6,20.7,30.45,South,173,5.0,6.0,75,0.00,,,0.00,Wunderground v.1.15,2013-03-13 18:58:00,
2013-03-13 14:00:00,27.5,20.3,30.45,South,173,5.0,6.0,74,0.00,,,0.00,Wunderground v.1.15,2013-03-13 19:00:00,
2013-03-13 14:02:00,27.3,20.1,30.45,SSE,166,5.0,6.0,74,0.00,,,0.00,Wunderground v.1.15,2013-03-13 19:02:00,
2013-03-13 14:03:00,27.2,19.7,30.45,SSE,166,4.0,6.0,73,0.00,,,0.00,Wunderground v.1.15,2013-03-13 19:03:00,
2013-03-13 14:05:00,27.2,20.0,30.45,SSE,166,2.0,6.0,74,0.00,,,0.00,Wunderground v.1.15,2013-03-13 19:05:00,
2013-03-13 14:08:00,27.2,20.0,30.45,SSE,166,2.0,6.0,74,0.00,,,0.00,Wunderground v.1.15,2013-03-13 19:08:00,
2013-03-13 14:10:00,27.2,20.0,30.45,SSE,166,5.0,5.0,74,0.00,,,0.00,Wunderground v.1.15,2013-03-13 19:10:00,
2013-03-13 14:13:00,27.0,19.5,30.45,South,173,2.0,6.0,73,0.00,,,0.00,Wunderground v.1.15,2013-03-13 19:13:00,
2013-03-13 14:14:00,27.0,19.5,30.45,South,173,4.0,6.0,73,0.00,,,0.00,Wunderground v.1.15,2013-03-13 19:14:00,
2013-03-13 14:15:00,27.0,19.2,30.45,South,173,4.0,6.0,72,0.00,,,0.00,Wunderground v.1.15,2013-03-13 19:15:00,
2013-03-13 14:19:00,27.2,19.7,30.45,South,173,4.0,6.0,73,0.00,,,0.00,Wunderground v.1.15,2013-03-13 19:19:00,
2013-03-13 14:20:00,27.4,19.6,30.45,South,173,4.0,4.0,72,0.00,,,0.00,Wunderground v.1.15,2013-03-13 19:20:00,
2013-03-13 14:24:00,27.7,19.8,30.45,South,172,6.0,6.0,72,0.00,,,0.00,Wunderground v.1.15,2013-03-13 19:24:00,
2013-03-13 14:25:00,27.7,19.5,30.45,South,178,6.0,6.0,71,0.00,,,0.00,Wunderground v.1.15,2013-03-13 19:25:00,
2013-03-13 14:29:00,27.5,19.7,30.45,South,191,4.0,6.0,72,0.00,,,0.00,Wunderground v.1.15,2013-03-13 19:29:00,
2013-03-13 14:30:00,27.5,20.0,30.45,South,170,5.0,5.0,73,0.00,,,0.00,Wunderground v.1.15,2013-03-13 19:30:00,
2013-03-13 14:31:00,27.6,20.1,30.44,SSW,205,3.0,6.0,73,0.00,,,0.00,Wunderground v.1.15,2013-03-13 19:31:00,
2013-03-13 14:34:00,27.8,20.3,30.44,South,182,4.0,6.0,73,0.00,,,0.00,Wunderground v.1.15,2013-03-13 19:34:00,
2013-03-13 14:35:00,27.8,20.3,30.44,South,182,4.0,6.0,73,0.00,,,0.00,Wunderground v.1.15,2013-03-13 19:35:00,
2013-03-13 14:36:00,27.8,20.3,30.44,South,182,4.0,6.0,73,0.00,,,0.00,Wunderground v.1.15,2013-03-13 19:36:00,
2013-03-13 14:39:00,27.8,20.3,30.44,SW,227,3.0,6.0,73,0.00,,,0.00,Wunderground v.1.15,2013-03-13 19:39:00,
2013-03-13 14:40:00,27.7,20.2,30.44,SW,227,1.0,4.0,73,0.00,,,0.01,Wunderground v.1.15,2013-03-13 19:40:00,
2013-03-13 14:42:00,27.9,20.7,30.44,South,169,2.0,4.0,74,0.00,,,0.01,Wunderground v.1.15,2013-03-13 19:42:00,
2013-03-13 14:45:00,28.1,20.9,30.44,South,175,4.0,5.0,74,0.00,,,0.01,Wunderground v.1.15,2013-03-13 19:45:00,
2013-03-13 14:47:00,28.2,21.3,30.44,SSW,207,2.0,5.0,75,0.00,,,0.01,Wunderground v.1.15,2013-03-13 19:47:00,
2013-03-13 14:50:00,28.3,21.1,30.44,SW,221,2.0,3.0,74,0.00,,,0.01,Wunderground v.1.15,2013-03-13 19:50:00,
2013-03-13 14:52:00,28.4,21.2,30.44,South,181,4.0,4.0,74,0.00,,,0.01,Wunderground v.1.15,2013-03-13 19:52:00,
2013-03-13 14:55:00,28.3,21.1,30.44,SSE,168,5.0,5.0,74,0.00,,,0.01,Wunderground v.1.15,2013-03-13 19:55:00,
2013-03-13 14:57:00,28.2,21.0,30.43,SSE,168,4.0,5.0,74,0.00,,,0.01,Wunderground v.1.15,2013-03-13 19:57:00,
2013-03-13 15:00:00,28.2,21.3,30.43,South,178,1.0,3.0,75,0.00,,,0.01,Wunderground v.1.15,2013-03-13 20:00:00,
2013-03-13 15:02:00,28.3,21.1,30.43,South,178,1.0,4.0,74,0.00,,,0.01,Wunderground v.1.15,2013-03-13 20:02:00,
2013-03-13 15:05:00,28.5,21.6,30.43,South,176,2.0,6.0,75,0.00,,,0.01,Wunderground v.1.15,2013-03-13 20:05:00,
2013-03-13 15:07:00,28.4,20.5,30.44,South,172,4.0,6.0,72,0.00,,,0.01,Wunderground v.1.15,2013-03-13 20:07:00,
2013-03-13 15:10:00,28.4,21.2,30.44,SSE,163,5.0,6.0,74,0.00,,,0.01,Wunderground v.1.15,2013-03-13 20:10:00,
2013-03-13 15:11:00,28.4,20.8,30.43,SSE,165,4.0,6.0,73,0.00,,,0.01,Wunderground v.1.15,2013-03-13 20:11:00,
2013-03-13 15:12:00,28.4,20.8,30.43,SSW,199,4.0,6.0,73,0.00,,,0.01,Wunderground v.1.15,2013-03-13 20:12:00,
2013-03-13 15:13:00,28.4,20.8,30.43,South,181,5.0,6.0,73,0.00,,,0.01,Wunderground v.1.15,2013-03-13 20:13:00,
2013-03-13 15:15:00,28.3,20.1,30.43,South,170,4.0,7.0,71,0.00,,,0.01,Wunderground v.1.15,2013-03-13 20:15:00,
2013-03-13 15:16:00,28.3,20.1,30.43,South,170,6.0,7.0,71,0.00,,,0.01,Wunderground v.1.15,2013-03-13 20:16:00,
2013-03-13 15:17:00,28.2,20.0,30.43,SSW,204,4.0,7.0,71,0.00,,,0.01,Wunderground v.1.15,2013-03-13 20:17:00,
2013-03-13 15:18:00,28.3,19.8,30.43,South,179,5.0,7.0,70,0.00,,,0.01,Wunderground v.1.15,2013-03-13 20:18:00,
2013-03-13 15:20:00,28.3,20.4,30.43,SW,215,4.0,5.0,72,0.00,,,0.01,Wunderground v.1.15,2013-03-13 20:20:00,
2013-03-13 15:21:00,28.5,20.6,30.43,SW,215,4.0,5.0,72,0.00,,,0.01,Wunderground v.1.15,2013-03-13 20:21:00,
2013-03-13 15:23:00,28.7,20.5,30.43,South,178,8.0,8.0,71,0.00,,,0.01,Wunderground v.1.15,2013-03-13 20:23:00,
2013-03-13 15:26:00,28.6,18.7,30.43,South,181,5.0,8.0,66,0.00,,,0.01,Wunderground v.1.15,2013-03-13 20:26:00,
2013-03-13 15:28:00,28.5,19.3,30.43,SSW,193,4.0,8.0,68,0.00,,,0.01,Wunderground v.1.15,2013-03-13 20:28:00,
2013-03-13 15:31:00,28.4,19.2,30.43,South,177,6.0,6.0,68,0.00,,,0.01,Wunderground v.1.15,2013-03-13 20:31:00,
2013-03-13 15:32:00,28.5,19.3,30.43,South,183,4.0,6.0,68,0.00,,,0.01,Wunderground v.1.15,2013-03-13 20:32:00,
2013-03-13 15:33:00,28.5,19.6,30.43,South,186,4.0,6.0,69,0.00,,,0.01,Wunderground v.1.15,2013-03-13 20:33:00,
2013-03-13 15:36:00,28.5,20.0,30.43,SSW,213,2.0,6.0,70,0.00,,,0.01,Wunderground v.1.15,2013-03-13 20:36:00,
2013-03-13 15:37:00,28.7,19.8,30.43,SW,215,2.0,6.0,69,0.00,,,0.01,Wunderground v.1.15,2013-03-13 20:37:00,
2013-03-13 15:38:00,28.8,20.2,30.43,South,171,5.0,6.0,70,0.00,,,0.01,Wunderground v.1.15,2013-03-13 20:38:00,
2013-03-13 15:39:00,28.8,20.2,30.43,South,173,7.0,7.0,70,0.00,,,0.01,Wunderground v.1.15,2013-03-13 20:39:00,
2013-03-13 15:41:00,28.8,19.9,30.43,SSW,207,4.0,5.0,69,0.00,,,0.01,Wunderground v.1.15,2013-03-13 20:41:00,
2013-03-13 15:43:00,28.9,20.3,30.43,SSW,207,4.0,5.0,70,0.00,,,0.01,Wunderground v.1.15,2013-03-13 20:43:00,
2013-03-13 15:44:00,28.9,20.7,30.43,SSW,207,3.0,5.0,71,0.00,,,0.01,Wunderground v.1.15,2013-03-13 20:44:00,
2013-03-13 15:46:00,28.9,20.0,30.42,SSE,167,5.0,7.0,69,0.00,,,0.01,Wunderground v.1.15,2013-03-13 20:46:00,
2013-03-13 15:48:00,28.8,20.6,30.42,SSW,213,3.0,7.0,71,0.00,,,0.01,Wunderground v.1.15,2013-03-13 20:48:00,
2013-03-13 15:49:00,28.8,20.6,30.42,SSW,210,3.0,7.0,71,0.00,,,0.01,Wunderground v.1.15,2013-03-13 20:49:00,
2013-03-13 15:50:00,28.8,20.2,30.42,South,183,3.0,4.0,70,0.00,,,0.01,Wunderground v.1.15,2013-03-13 20:50:00,
2013-03-13 15:52:00,28.9,20.0,30.42,South,178,5.0,6.0,69,0.00,,,0.01,Wunderground v.1.15,2013-03-13 20:52:00,
2013-03-13 15:54:00,28.9,20.3,30.42,SSE,165,5.0,8.0,70,0.00,,,0.01,Wunderground v.1.15,2013-03-13 20:54:00,
2013-03-13 15:55:00,28.8,19.6,30.42,SSW,197,4.0,8.0,68,0.00,,,0.01,Wunderground v.1.15,2013-03-13 20:55:00,
2013-03-13 15:57:00,28.8,19.9,30.42,SSW,196,4.0,8.0,69,0.00,,,0.01,Wunderground v.1.15,2013-03-13 20:57:00,
2013-03-13 15:59:00,28.8,19.9,30.42,South,171,5.0,8.0,69,0.00,,,0.01,Wunderground v.1.15,2013-03-13 20:59:00,
2013-03-13 16:00:00,28.8,19.9,30.42,South,169,6.0,7.0,69,0.00,,,0.01,Wunderground v.1.15,2013-03-13 21:00:00,
2013-03-13 16:02:00,28.5,19.3,30.42,SSE,155,6.0,7.0,68,0.00,,,0.01,Wunderground v.1.15,2013-03-13 21:02:00,
2013-03-13 16:04:00,28.4,19.9,30.42,SSW,208,3.0,7.0,70,0.00,,,0.01,Wunderground v.1.15,2013-03-13 21:04:00,
2013-03-13 16:05:00,28.5,20.3,30.42,SSW,201,3.0,7.0,71,0.00,,,0.01,Wunderground v.1.15,2013-03-13 21:05:00,
2013-03-13 16:08:00,28.8,20.2,30.42,South,180,5.0,7.0,70,0.00,,,0.01,Wunderground v.1.15,2013-03-13 21:08:00,
2013-03-13 16:10:00,28.7,20.1,30.42,SSW,196,3.0,5.0,70,0.00,,,0.01,Wunderground v.1.15,2013-03-13 21:10:00,
2013-03-13 16:13:00,28.7,20.1,30.42,SSW,204,4.0,6.0,70,0.00,,,0.01,Wunderground v.1.15,2013-03-13 21:13:00,
2013-03-13 16:15:00,28.8,20.9,30.42,SW,230,2.0,6.0,72,0.00,,,0.01,Wunderground v.1.15,2013-03-13 21:15:00,
2013-03-13 16:18:00,29.0,21.1,30.42,SSW,202,2.0,6.0,72,0.00,,,0.01,Wunderground v.1.15,2013-03-13 21:18:00,
2013-03-13 16:20:00,29.0,20.8,30.42,South,173,5.0,5.0,71,0.00,,,0.01,Wunderground v.1.15,2013-03-13 21:20:00,
2013-03-13 16:23:00,29.0,21.4,30.42,SSW,195,2.0,5.0,73,0.00,,,0.01,Wunderground v.1.15,2013-03-13 21:23:00,
2013-03-13 16:25:00,29.0,21.4,30.42,South,184,2.0,5.0,73,0.00,,,0.02,Wunderground v.1.15,2013-03-13 21:25:00,
2013-03-13 16:29:00,28.8,21.2,30.42,South,186,4.0,5.0,73,0.00,,,0.02,Wunderground v.1.15,2013-03-13 21:29:00,
2013-03-13 16:31:00,28.7,20.8,30.42,South,175,6.0,6.0,72,0.00,,,0.02,Wunderground v.1.15,2013-03-13 21:31:00,
2013-03-13 16:34:00,28.6,20.7,30.41,South,175,5.0,6.0,72,0.00,,,0.02,Wunderground v.1.15,2013-03-13 21:34:00,
2013-03-13 16:36:00,28.5,20.9,30.41,South,171,5.0,6.0,73,0.00,,,0.02,Wunderground v.1.15,2013-03-13 21:36:00,
2013-03-13 16:37:00,28.5,20.9,30.41,South,178,2.0,6.0,73,0.00,,,0.02,Wunderground v.1.15,2013-03-13 21:37:00,
2013-03-13 16:39:00,28.4,20.8,30.41,South,177,6.0,8.0,73,0.00,,,0.02,Wunderground v.1.15,2013-03-13 21:39:00,
2013-03-13 16:41:00,28.1,20.6,30.41,South,177,6.0,8.0,73,0.00,,,0.02,Wunderground v.1.15,2013-03-13 21:41:00,
2013-03-13 16:42:00,28.1,20.6,30.41,South,180,6.0,8.0,73,0.00,,,0.02,Wunderground v.1.15,2013-03-13 21:42:00,
2013-03-13 16:44:00,27.9,21.0,30.41,SSW,198,5.0,8.0,75,0.00,,,0.02,Wunderground v.1.15,2013-03-13 21:44:00,
2013-03-13 16:47:00,27.9,20.7,30.40,South,172,5.0,8.0,74,0.00,,,0.02,Wunderground v.1.15,2013-03-13 21:47:00,
2013-03-13 16:49:00,27.7,20.5,30.40,South,175,6.0,9.0,74,0.00,,,0.02,Wunderground v.1.15,2013-03-13 21:49:00,
2013-03-13 16:52:00,27.6,20.4,30.40,South,172,6.0,9.0,74,0.00,,,0.02,Wunderground v.1.15,2013-03-13 21:52:00,
2013-03-13 16:53:00,27.6,20.1,30.40,South,178,7.0,9.0,73,0.00,,,0.02,Wunderground v.1.15,2013-03-13 21:53:00,
2013-03-13 16:54:00,27.5,20.3,30.40,South,173,6.0,9.0,74,0.00,,,0.02,Wunderground v.1.15,2013-03-13 21:54:00,
2013-03-13 16:57:00,27.6,21.0,30.40,South,171,6.0,9.0,76,0.00,,,0.02,Wunderground v.1.15,2013-03-13 21:57:00,
2013-03-13 16:58:00,27.6,21.0,30.40,SSW,192,6.0,9.0,76,0.00,,,0.02,Wunderground v.1.15,2013-03-13 21:58:00,
2013-03-13 16:59:00,27.7,21.1,30.40,SSE,167,7.0,9.0,76,0.00,,,0.02,Wunderground v.1.15,2013-03-13 21:59:00,
2013-03-13 17:02:00,27.6,20.7,30.39,SSE,168,7.0,10.0,75,0.00,,,0.02,Wunderground v.1.15,2013-03-13 22:02:00,
2013-03-13 17:03:00,27.6,20.1,30.39,SSE,165,8.0,10.0,73,0.00,,,0.02,Wunderground v.1.15,2013-03-13 22:03:00,
2013-03-13 17:05:00,27.6,20.4,30.39,South,175,7.0,10.0,74,0.00,,,0.02,Wunderground v.1.15,2013-03-13 22:05:00,
2013-03-13 17:07:00,27.7,20.8,30.39,South,171,7.0,10.0,75,0.00,,,0.02,Wunderground v.1.15,2013-03-13 22:07:00,
2013-03-13 17:08:00,27.7,21.1,30.39,South,170,8.0,10.0,76,0.00,,,0.02,Wunderground v.1.15,2013-03-13 22:08:00,
2013-03-13 17:10:00,27.8,21.2,30.39,SSE,161,7.0,8.0,76,0.00,,,0.02,Wunderground v.1.15,2013-03-13 22:10:00,
2013-03-13 17:12:00,27.7,20.5,30.38,SSE,168,8.0,10.0,74,0.00,,,0.02,Wunderground v.1.15,2013-03-13 22:12:00,
2013-03-13 17:13:00,27.6,20.4,30.38,SSE,165,8.0,10.0,74,0.00,,,0.02,Wunderground v.1.15,2013-03-13 22:13:00,
2013-03-13 17:15:00,27.5,20.3,30.38,South,178,9.0,10.0,74,0.00,,,0.02,Wunderground v.1.15,2013-03-13 22:15:00,
2013-03-13 17:18:00,27.4,20.2,30.38,SSE,167,10.0,10.0,74,0.00,,,0.02,Wunderground v.1.15,2013-03-13 22:18:00,
2013-03-13 17:19:00,27.4,19.6,30.38,South,170,7.0,10.0,72,0.00,,,0.02,Wunderground v.1.15,2013-03-13 22:19:00,
2013-03-13 17:20:00,27.3,19.1,30.38,South,174,8.0,10.0,71,0.00,,,0.02,Wunderground v.1.15,2013-03-13 22:20:00,
2013-03-13 17:23:00,27.3,19.5,30.38,South,171,7.0,10.0,72,0.00,,,0.02,Wunderground v.1.15,2013-03-13 22:23:00,
2013-03-13 17:24:00,27.3,19.5,30.38,South,173,8.0,10.0,72,0.00,,,0.02,Wunderground v.1.15,2013-03-13 22:24:00,
2013-03-13 17:26:00,27.3,19.1,30.38,SSE,162,7.0,10.0,71,0.00,,,0.02,Wunderground v.1.15,2013-03-13 22:26:00,
2013-03-13 17:28:00,27.2,19.4,30.38,SSE,164,7.0,10.0,72,0.00,,,0.02,Wunderground v.1.15,2013-03-13 22:28:00,
2013-03-13 17:30:00,27.2,19.7,30.38,South,173,6.0,10.0,73,0.00,,,0.02,Wunderground v.1.15,2013-03-13 22:30:00,
2013-03-13 17:31:00,27.2,20.0,30.38,South,169,7.0,8.0,74,0.00,,,0.02,Wunderground v.1.15,2013-03-13 22:31:00,
2013-03-13 17:34:00,27.1,20.2,30.38,South,177,8.0,9.0,75,0.00,,,0.02,Wunderground v.1.15,2013-03-13 22:34:00,
2013-03-13 17:35:00,27.1,20.2,30.38,SSE,166,7.0,9.0,75,0.00,,,0.02,Wunderground v.1.15,2013-03-13 22:35:00,
2013-03-13 17:36:00,26.9,19.7,30.38,SSE,166,9.0,10.0,74,0.00,,,0.02,Wunderground v.1.15,2013-03-13 22:36:00,
2013-03-13 17:39:00,26.8,19.9,30.38,SSE,161,8.0,10.0,75,0.00,,,0.02,Wunderground v.1.15,2013-03-13 22:39:00,
2013-03-13 17:40:00,26.8,19.6,30.38,SSE,158,8.0,8.0,74,0.00,,,0.02,Wunderground v.1.15,2013-03-13 22:40:00,
2013-03-13 17:42:00,26.7,18.6,30.38,South,170,8.0,9.0,71,0.00,,,0.02,Wunderground v.1.15,2013-03-13 22:42:00,
2013-03-13 17:45:00,26.7,19.2,30.38,South,173,7.0,9.0,73,0.00,,,0.02,Wunderground v.1.15,2013-03-13 22:45:00,
2013-03-13 17:46:00,26.7,19.5,30.38,South,182,5.0,9.0,74,0.00,,,0.02,Wunderground v.1.15,2013-03-13 22:46:00,
2013-03-13 17:47:00,26.7,19.5,30.38,SSW,196,5.0,9.0,74,0.00,,,0.02,Wunderground v.1.15,2013-03-13 22:47:00,
2013-03-13 17:50:00,26.7,19.8,30.38,South,172,6.0,7.0,75,0.00,,,0.02,Wunderground v.1.15,2013-03-13 22:50:00,
2013-03-13 17:51:00,26.6,20.1,30.38,South,171,7.0,9.0,76,0.00,,,0.02,Wunderground v.1.15,2013-03-13 22:51:00,
2013-03-13 17:52:00,26.6,19.7,30.38,South,174,6.0,9.0,75,0.00,,,0.02,Wunderground v.1.15,2013-03-13 22:52:00,
2013-03-13 17:55:00,26.5,19.6,30.38,SSE,167,8.0,9.0,75,0.00,,,0.02,Wunderground v.1.15,2013-03-13 22:55:00,
2013-03-13 17:57:00,26.4,19.5,30.38,SSE,163,8.0,10.0,75,0.00,,,0.02,Wunderground v.1.15,2013-03-13 22:57:00,
2013-03-13 18:00:00,26.3,19.5,30.38,South,174,7.0,7.0,75,0.00,,,0.02,Wunderground v.1.15,2013-03-13 23:00:00,
2013-03-13 18:02:00,26.3,20.1,30.38,South,175,8.0,9.0,77,0.00,,,0.02,Wunderground v.1.15,2013-03-13 23:02:00,
2013-03-13 18:05:00,26.2,19.4,30.38,South,173,9.0,10.0,75,0.00,,,0.02,Wunderground v.1.15,2013-03-13 23:05:00,
2013-03-13 18:06:00,26.2,19.4,30.38,SSE,168,7.0,10.0,75,0.00,,,0.02,Wunderground v.1.15,2013-03-13 23:06:00,
2013-03-13 18:07:00,26.2,20.0,30.38,South,172,8.0,10.0,77,0.00,,,0.02,Wunderground v.1.15,2013-03-13 23:07:00,
2013-03-13 18:09:00,26.2,20.0,30.38,South,190,6.0,10.0,77,0.00,,,0.02,Wunderground v.1.15,2013-03-13 23:09:00,
2013-03-13 18:10:00,26.2,19.7,30.38,SSE,167,8.0,8.0,76,0.00,,,0.02,Wunderground v.1.15,2013-03-13 23:10:00,
2013-03-13 18:11:00,26.2,19.7,30.38,South,180,9.0,9.0,76,0.00,,,0.02,Wunderground v.1.15,2013-03-13 23:11:00,
2013-03-13 18:12:00,26.3,19.8,30.38,South,169,6.0,9.0,76,0.00,,,0.02,Wunderground v.1.15,2013-03-13 23:12:00,
2013-03-13 18:15:00,26.3,19.8,30.38,South,186,5.0,9.0,76,0.00,,,0.02,Wunderground v.1.15,2013-03-13 23:15:00,
2013-03-13 18:16:00,26.3,20.1,30.38,South,184,4.0,9.0,77,0.00,,,0.02,Wunderground v.1.15,2013-03-13 23:16:00,
2013-03-13 18:18:00,26.3,20.1,30.38,South,174,4.0,9.0,77,0.00,,,0.02,Wunderground v.1.15,2013-03-13 23:18:00,
2013-03-13 18:20:00,26.3,20.4,30.38,SSE,165,6.0,7.0,78,0.00,,,0.02,Wunderground v.1.15,2013-03-13 23:20:00,
2013-03-13 18:22:00,26.3,20.4,30.38,South,173,7.0,8.0,78,0.00,,,0.02,Wunderground v.1.15,2013-03-13 23:22:00,
2013-03-13 18:23:00,26.3,20.4,30.38,South,173,7.0,8.0,78,0.00,,,0.02,Wunderground v.1.15,2013-03-13 23:23:00,
2013-03-13 18:25:00,26.3,20.7,30.37,South,172,6.0,8.0,79,0.00,,,0.02,Wunderground v.1.15,2013-03-13 23:25:00,
2013-03-13 18:28:00,26.3,21.0,30.37,South,174,7.0,9.0,80,0.00,,,0.02,Wunderground v.1.15,2013-03-13 23:28:00,
2013-03-13 18:31:00,26.2,20.9,30.37,South,173,7.0,9.0,80,0.00,,,0.02,Wunderground v.1.15,2013-03-13 23:31:00,
2013-03-13 18:32:00,26.1,20.8,30.37,South,171,8.0,9.0,80,0.00,,,0.02,Wunderground v.1.15,2013-03-13 23:32:00,
2013-03-13 18:33:00,26.1,20.8,30.37,South,173,6.0,9.0,80,0.00,,,0.02,Wunderground v.1.15,2013-03-13 23:33:00,
2013-03-13 18:36:00,26.0,21.0,30.37,SSE,158,7.0,9.0,81,0.00,,,0.02,Wunderground v.1.15,2013-03-13 23:36:00,
2013-03-13 18:37:00,26.0,21.0,30.37,SSE,168,8.0,9.0,81,0.00,,,0.02,Wunderground v.1.15,2013-03-13 23:37:00,
2013-03-13 18:38:00,26.0,21.0,30.37,South,169,8.0,9.0,81,0.00,,,0.02,Wunderground v.1.15,2013-03-13 23:38:00,
2013-03-13 18:41:00,25.8,20.8,30.37,South,173,7.0,9.0,81,0.00,,,0.02,Wunderground v.1.15,2013-03-13 23:41:00,
2013-03-13 18:42:00,25.8,20.8,30.37,South,173,8.0,9.0,81,0.00,,,0.02,Wunderground v.1.15,2013-03-13 23:42:00,
2013-03-13 18:43:00,25.7,21.0,30.37,South,171,7.0,9.0,82,0.00,,,0.02,Wunderground v.1.15,2013-03-13 23:43:00,
2013-03-13 18:44:00,25.7,21.0,30.38,South,174,8.0,9.0,82,0.00,,,0.02,Wunderground v.1.15,2013-03-13 23:44:00,
2013-03-13 18:47:00,25.5,20.5,30.38,SSE,167,7.0,9.0,81,0.00,,,0.02,Wunderground v.1.15,2013-03-13 23:47:00,
2013-03-13 18:48:00,25.5,20.8,30.38,South,176,7.0,9.0,82,0.00,,,0.02,Wunderground v.1.15,2013-03-13 23:48:00,
2013-03-13 18:49:00,25.5,20.8,30.38,South,173,6.0,9.0,82,0.00,,,0.02,Wunderground v.1.15,2013-03-13 23:49:00,
2013-03-13 18:52:00,25.4,20.7,30.37,South,177,8.0,8.0,82,0.00,,,0.02,Wunderground v.1.15,2013-03-13 23:52:00,
2013-03-13 18:53:00,25.3,20.6,30.38,South,174,7.0,8.0,82,0.00,,,0.02,Wunderground v.1.15,2013-03-13 23:53:00,
2013-03-13 18:54:00,25.2,20.5,30.38,South,173,8.0,8.0,82,0.00,,,0.02,Wunderground v.1.15,2013-03-13 23:54:00,
2013-03-13 18:57:00,25.1,20.4,30.37,South,173,7.0,8.0,82,0.00,,,0.02,Wunderground v.1.15,2013-03-13 23:57:00,
2013-03-13 18:58:00,25.0,20.3,30.38,South,173,8.0,8.0,82,0.00,,,0.02,Wunderground v.1.15,2013-03-13 23:58:00,
2013-03-13 18:59:00,25.0,20.3,30.38,South,171,8.0,9.0,82,0.00,,,0.02,Wunderground v.1.15,2013-03-13 23:59:00,
2013-03-13 19:02:00,24.9,20.2,30.38,SSE,164,9.0,9.0,82,0.00,,,0.02,Wunderground v.1.15,2013-03-14 00:02:00,
2013-03-13 19:03:00,24.9,20.2,30.38,South,176,8.0,9.0,82,0.00,,,0.02,Wunderground v.1.15,2013-03-14 00:03:00,
2013-03-13 19:04:00,24.9,20.2,30.38,South,174,7.0,9.0,82,0.00,,,0.02,Wunderground v.1.15,2013-03-14 00:04:00,
2013-03-13 19:08:00,24.8,20.4,30.37,South,169,7.0,9.0,83,0.00,,,0.02,Wunderground v.1.15,2013-03-14 00:08:00,
2013-03-13 19:09:00,24.7,20.3,30.38,South,173,6.0,9.0,83,0.00,,,0.02,Wunderground v.1.15,2013-03-14 00:09:00,
2013-03-13 19:13:00,24.6,20.2,30.37,South,171,6.0,8.0,83,0.00,,,0.02,Wunderground v.1.15,2013-03-14 00:13:00,
2013-03-13 19:14:00,24.5,20.1,30.37,South,171,7.0,8.0,83,0.00,,,0.02,Wunderground v.1.15,2013-03-14 00:14:00,
2013-03-13 19:18:00,24.4,20.3,30.37,South,175,7.0,9.0,84,0.00,,,0.02,Wunderground v.1.15,2013-03-14 00:18:00,
2013-03-13 19:19:00,24.4,20.3,30.37,South,173,8.0,9.0,84,0.00,,,0.02,Wunderground v.1.15,2013-03-14 00:19:00,
2013-03-13 19:23:00,24.3,20.2,30.37,South,173,8.0,8.0,84,0.00,,,0.02,Wunderground v.1.15,2013-03-14 00:23:00,
2013-03-13 19:24:00,24.2,20.1,30.37,South,173,6.0,8.0,84,0.00,,,0.02,Wunderground v.1.15,2013-03-14 00:24:00,
2013-03-13 19:25:00,24.2,20.1,30.37,SSE,168,7.0,8.0,84,0.00,,,0.02,Wunderground v.1.15,2013-03-14 00:25:00,
2013-03-13 19:28:00,24.2,20.3,30.37,South,175,6.0,9.0,85,0.00,,,0.02,Wunderground v.1.15,2013-03-14 00:28:00,
2013-03-13 19:29:00,24.2,20.3,30.37,South,171,7.0,9.0,85,0.00,,,0.02,Wunderground v.1.15,2013-03-14 00:29:00,
2013-03-13 19:31:00,24.1,20.2,30.37,South,173,6.0,8.0,85,0.00,,,0.02,Wunderground v.1.15,2013-03-14 00:31:00,
2013-03-13 19:33:00,24.1,20.2,30.37,South,171,7.0,8.0,85,0.00,,,0.02,Wunderground v.1.15,2013-03-14 00:33:00,
2013-03-13 19:35:00,24.0,20.1,30.37,South,172,8.0,8.0,85,0.00,,,0.02,Wunderground v.1.15,2013-03-14 00:35:00,
2013-03-13 19:36:00,24.1,20.2,30.37,South,177,8.0,9.0,85,0.00,,,0.02,Wunderground v.1.15,2013-03-14 00:36:00,
2013-03-13 19:38:00,24.0,20.1,30.37,South,172,7.0,9.0,85,0.00,,,0.02,Wunderground v.1.15,2013-03-14 00:38:00,
2013-03-13 19:40:00,24.0,20.1,30.37,South,172,7.0,9.0,85,0.00,,,0.02,Wunderground v.1.15,2013-03-14 00:40:00,
2013-03-13 19:41:00,24.0,20.1,30.36,South,172,8.0,10.0,85,0.00,,,0.02,Wunderground v.1.15,2013-03-14 00:41:00,
2013-03-13 19:42:00,24.0,20.1,30.36,South,178,8.0,10.0,85,0.00,,,0.02,Wunderground v.1.15,2013-03-14 00:42:00,
2013-03-13 19:43:00,23.9,20.0,30.36,South,173,8.0,10.0,85,0.00,,,0.02,Wunderground v.1.15,2013-03-14 00:43:00,
2013-03-13 19:45:00,23.9,20.0,30.36,SSW,194,7.0,10.0,85,0.00,,,0.02,Wunderground v.1.15,2013-03-14 00:45:00,
2013-03-13 19:46:00,23.9,20.0,30.37,South,171,6.0,10.0,85,0.00,,,0.02,Wunderground v.1.15,2013-03-14 00:46:00,
2013-03-13 19:47:00,23.9,20.0,30.37,South,176,9.0,10.0,85,0.00,,,0.02,Wunderground v.1.15,2013-03-14 00:47:00,
2013-03-13 19:48:00,23.8,19.9,30.37,South,176,8.0,10.0,85,0.00,,,0.02,Wunderground v.1.15,2013-03-14 00:48:00,
2013-03-13 19:51:00,23.8,19.9,30.37,South,175,8.0,9.0,85,0.00,,,0.02,Wunderground v.1.15,2013-03-14 00:51:00,
2013-03-13 19:52:00,23.8,19.9,30.37,SSE,167,7.0,9.0,85,0.00,,,0.02,Wunderground v.1.15,2013-03-14 00:52:00,
2013-03-13 19:53:00,23.8,19.9,30.37,South,171,8.0,9.0,85,0.00,,,0.02,Wunderground v.1.15,2013-03-14 00:53:00,
2013-03-13 19:54:00,23.7,19.9,30.37,South,173,7.0,9.0,85,0.00,,,0.02,Wunderground v.1.15,2013-03-14 00:54:00,
2013-03-13 19:56:00,23.7,19.9,30.36,South,176,6.0,9.0,85,0.00,,,0.02,Wunderground v.1.15,2013-03-14 00:56:00,
2013-03-13 19:57:00,23.7,19.9,30.36,South,170,7.0,9.0,85,0.00,,,0.02,Wunderground v.1.15,2013-03-14 00:57:00,
2013-03-13 19:58:00,23.7,19.9,30.37,South,173,7.0,9.0,85,0.00,,,0.02,Wunderground v.1.15,2013-03-14 00:58:00,
2013-03-13 19:59:00,23.6,19.8,30.36,South,175,8.0,9.0,85,0.00,,,0.02,Wunderground v.1.15,2013-03-14 00:59:00,
2013-03-13 20:02:00,23.5,19.7,30.36,South,184,7.0,9.0,85,0.00,,,0.02,Wunderground v.1.15,2013-03-14 01:02:00,
2013-03-13 20:03:00,23.5,19.7,30.36,South,170,8.0,9.0,85,0.00,,,0.02,Wunderground v.1.15,2013-03-14 01:03:00,
2013-03-13 20:05:00,23.5,19.7,30.36,South,171,8.0,9.0,85,0.00,,,0.02,Wunderground v.1.15,2013-03-14 01:05:00,
2013-03-13 20:08:00,23.5,19.7,30.36,South,172,9.0,10.0,85,0.00,,,0.02,Wunderground v.1.15,2013-03-14 01:08:00,
2013-03-13 20:09:00,23.4,19.6,30.36,South,174,8.0,10.0,85,0.00,,,0.02,Wunderground v.1.15,2013-03-14 01:09:00,
2013-03-13 20:10:00,23.4,19.6,30.36,South,172,7.0,8.0,85,0.00,,,0.02,Wunderground v.1.15,2013-03-14 01:10:00,
2013-03-13 20:13:00,23.4,19.6,30.36,South,171,7.0,8.0,85,0.00,,,0.02,Wunderground v.1.15,2013-03-14 01:13:00,
2013-03-13 20:14:00,23.4,19.6,30.36,South,183,7.0,9.0,85,0.00,,,0.02,Wunderground v.1.15,2013-03-14 01:14:00,
2013-03-13 20:15:00,23.4,19.6,30.36,South,175,8.0,9.0,85,0.00,,,0.02,Wunderground v.1.15,2013-03-14 01:15:00,
2013-03-13 20:18:00,23.3,19.5,30.36,South,173,9.0,9.0,85,0.00,,,0.02,Wunderground v.1.15,2013-03-14 01:18:00,
2013-03-13 20:19:00,23.3,19.5,30.36,South,174,8.0,9.0,85,0.00,,,0.02,Wunderground v.1.15,2013-03-14 01:19:00,
2013-03-13 20:20:00,23.3,19.5,30.36,South,177,8.0,8.0,85,0.00,,,0.02,Wunderground v.1.15,2013-03-14 01:20:00,
2013-03-13 20:22:00,23.3,19.7,30.36,South,178,8.0,9.0,86,0.00,,,0.02,Wunderground v.1.15,2013-03-14 01:22:00,
2013-03-13 20:23:00,23.3,19.7,30.36,South,178,8.0,9.0,86,0.00,,,0.02,Wunderground v.1.15,2013-03-14 01:23:00,
2013-03-13 20:24:00,23.3,19.7,30.36,South,173,6.0,9.0,86,0.00,,,0.02,Wunderground v.1.15,2013-03-14 01:24:00,
2013-03-13 20:25:00,23.3,19.7,30.36,South,172,8.0,9.0,86,0.00,,,0.02,Wunderground v.1.15,2013-03-14 01:25:00,
2013-03-13 20:27:00,23.3,19.7,30.36,South,175,7.0,9.0,86,0.00,,,0.02,Wunderground v.1.15,2013-03-14 01:27:00,
2013-03-13 20:29:00,23.3,19.7,30.36,South,175,7.0,9.0,86,0.00,,,0.02,Wunderground v.1.15,2013-03-14 01:29:00,
2013-03-13 20:31:00,23.1,19.5,30.36,South,174,6.0,8.0,86,0.00,,,0.02,Wunderground v.1.15,2013-03-14 01:31:00,
2013-03-13 20:32:00,23.1,19.8,30.36,South,179,8.0,9.0,87,0.00,,,0.02,Wunderground v.1.15,2013-03-14 01:32:00,
2013-03-13 20:34:00,23.1,19.8,30.36,South,183,6.0,9.0,87,0.00,,,0.02,Wunderground v.1.15,2013-03-14 01:34:00,
2013-03-13 20:37:00,23.1,19.8,30.36,South,182,4.0,9.0,87,0.00,,,0.02,Wunderground v.1.15,2013-03-14 01:37:00,
2013-03-13 20:38:00,23.1,19.8,30.36,South,178,5.0,9.0,87,0.00,,,0.02,Wunderground v.1.15,2013-03-14 01:38:00,
2013-03-13 20:39:00,23.1,19.8,30.36,South,177,6.0,9.0,87,0.00,,,0.02,Wunderground v.1.15,2013-03-14 01:39:00,
2013-03-13 20:42:00,23.1,19.8,30.36,South,189,7.0,8.0,87,0.00,,,0.02,Wunderground v.1.15,2013-03-14 01:42:00,
2013-03-13 20:43:00,23.1,19.8,30.36,South,184,5.0,8.0,87,0.00,,,0.02,Wunderground v.1.15,2013-03-14 01:43:00,
2013-03-13 20:44:00,23.1,19.8,30.36,South,174,8.0,8.0,87,0.00,,,0.02,Wunderground v.1.15,2013-03-14 01:44:00,
2013-03-13 20:47:00,23.0,19.7,30.36,South,169,7.0,9.0,87,0.00,,,0.02,Wunderground v.1.15,2013-03-14 01:47:00,
2013-03-13 20:48:00,23.0,19.7,30.36,South,174,6.0,9.0,87,0.00,,,0.02,Wunderground v.1.15,2013-03-14 01:48:00,
2013-03-13 20:49:00,23.0,19.7,30.36,South,172,6.0,9.0,87,0.00,,,0.02,Wunderground v.1.15,2013-03-14 01:49:00,
2013-03-13 20:52:00,23.0,19.7,30.36,South,175,7.0,8.0,87,0.00,,,0.02,Wunderground v.1.15,2013-03-14 01:52:00,
2013-03-13 20:53:00,23.0,19.7,30.36,South,175,7.0,8.0,87,0.00,,,0.02,Wunderground v.1.15,2013-03-14 01:53:00,
2013-03-13 20:54:00,22.9,19.6,30.35,South,182,6.0,8.0,87,0.00,,,0.02,Wunderground v.1.15,2013-03-14 01:54:00,
2013-03-13 20:58:00,22.9,19.6,30.35,South,175,8.0,8.0,87,0.00,,,0.02,Wunderground v.1.15,2013-03-14 01:58:00,
2013-03-13 21:00:00,22.9,19.6,30.35,South,171,7.0,8.0,87,0.00,,,0.02,Wunderground v.1.15,2013-03-14 02:00:00,
2013-03-13 21:03:00,22.8,19.5,30.35,South,175,7.0,9.0,87,0.00,,,0.02,Wunderground v.1.15,2013-03-14 02:03:00,
2013-03-13 21:05:00,22.8,19.5,30.35,South,169,9.0,9.0,87,0.00,,,0.02,Wunderground v.1.15,2013-03-14 02:05:00,
2013-03-13 21:08:00,22.7,19.7,30.35,South,173,6.0,9.0,88,0.00,,,0.02,Wunderground v.1.15,2013-03-14 02:08:00,
2013-03-13 21:10:00,22.7,19.7,30.35,SSE,167,9.0,9.0,88,0.00,,,0.02,Wunderground v.1.15,2013-03-14 02:10:00,
2013-03-13 21:13:00,22.7,19.7,30.35,SSE,164,8.0,9.0,88,0.00,,,0.02,Wunderground v.1.15,2013-03-14 02:13:00,
2013-03-13 21:14:00,22.7,19.7,30.35,South,171,7.0,9.0,88,0.00,,,0.02,Wunderground v.1.15,2013-03-14 02:14:00,
2013-03-13 21:15:00,22.7,19.7,30.34,South,180,6.0,9.0,88,0.00,,,0.02,Wunderground v.1.15,2013-03-14 02:15:00,
2013-03-13 21:19:00,22.6,19.6,30.34,South,173,8.0,9.0,88,0.00,,,0.02,Wunderground v.1.15,2013-03-14 02:19:00,
2013-03-13 21:20:00,22.6,19.6,30.34,South,177,8.0,8.0,88,0.00,,,0.02,Wunderground v.1.15,2013-03-14 02:20:00,
2013-03-13 21:21:00,22.6,19.6,30.34,South,173,7.0,8.0,88,0.00,,,0.02,Wunderground v.1.15,2013-03-14 02:21:00,
2013-03-13 21:24:00,22.6,19.6,30.34,South,175,7.0,8.0,88,0.00,,,0.02,Wunderground v.1.15,2013-03-14 02:24:00,
2013-03-13 21:26:00,22.6,19.6,30.34,South,170,8.0,9.0,88,0.00,,,0.02,Wunderground v.1.15,2013-03-14 02:26:00,
2013-03-13 21:29:00,22.6,19.6,30.34,South,176,8.0,9.0,88,0.00,,,0.02,Wunderground v.1.15,2013-03-14 02:29:00,
2013-03-13 21:31:00,22.7,19.7,30.33,South,169,7.0,9.0,88,0.00,,,0.02,Wunderground v.1.15,2013-03-14 02:31:00,
2013-03-13 21:32:00,22.7,19.7,30.33,South,170,7.0,9.0,88,0.00,,,0.02,Wunderground v.1.15,2013-03-14 02:32:00,
2013-03-13 21:34:00,22.7,19.7,30.33,South,171,7.0,9.0,88,0.00,,,0.02,Wunderground v.1.15,2013-03-14 02:34:00,
2013-03-13 21:36:00,22.7,19.7,30.33,South,173,8.0,10.0,88,0.00,,,0.02,Wunderground v.1.15,2013-03-14 02:36:00,
2013-03-13 21:37:00,22.7,19.7,30.33,South,169,9.0,10.0,88,0.00,,,0.02,Wunderground v.1.15,2013-03-14 02:37:00,
2013-03-13 21:39:00,22.8,19.8,30.33,South,175,10.0,10.0,88,0.00,,,0.02,Wunderground v.1.15,2013-03-14 02:39:00,
2013-03-13 21:40:00,22.7,19.7,30.33,South,172,8.0,9.0,88,0.00,,,0.02,Wunderground v.1.15,2013-03-14 02:40:00,
2013-03-13 21:42:00,22.8,19.8,30.33,South,174,8.0,10.0,88,0.00,,,0.02,Wunderground v.1.15,2013-03-14 02:42:00,
2013-03-13 21:44:00,22.8,19.8,30.33,South,171,8.0,10.0,88,0.00,,,0.02,Wunderground v.1.15,2013-03-14 02:44:00,
2013-03-13 21:45:00,22.8,19.8,30.33,South,171,8.0,10.0,88,0.00,,,0.02,Wunderground v.1.15,2013-03-14 02:45:00,
2013-03-13 21:47:00,22.8,19.8,30.33,South,171,8.0,10.0,88,0.00,,,0.02,Wunderground v.1.15,2013-03-14 02:47:00,
2013-03-13 21:48:00,22.8,19.8,30.33,South,171,8.0,10.0,88,0.00,,,0.02,Wunderground v.1.15,2013-03-14 02:48:00,
2013-03-13 21:50:00,22.9,19.9,30.33,South,173,8.0,10.0,88,0.00,,,0.02,Wunderground v.1.15,2013-03-14 02:50:00,
2013-03-13 21:51:00,22.9,19.9,30.33,South,179,8.0,10.0,88,0.00,,,0.02,Wunderground v.1.15,2013-03-14 02:51:00,
2013-03-13 21:52:00,22.9,19.9,30.33,South,177,7.0,10.0,88,0.00,,,0.02,Wunderground v.1.15,2013-03-14 02:52:00,
2013-03-13 21:53:00,22.9,19.9,30.33,South,172,8.0,10.0,88,0.00,,,0.02,Wunderground v.1.15,2013-03-14 02:53:00,
2013-03-13 21:55:00,22.9,19.9,30.33,South,172,7.0,11.0,88,0.00,,,0.02,Wunderground v.1.15,2013-03-14 02:55:00,
2013-03-13 21:56:00,22.9,19.9,30.33,South,174,9.0,11.0,88,0.00,,,0.02,Wunderground v.1.15,2013-03-14 02:56:00,
2013-03-13 21:57:00,23.0,20.0,30.33,South,176,9.0,11.0,88,0.00,,,0.02,Wunderground v.1.15,2013-03-14 02:57:00,
2013-03-13 21:58:00,23.0,20.0,30.33,South,171,7.0,11.0,88,0.00,,,0.02,Wunderground v.1.15,2013-03-14 02:58:00,
2013-03-13 22:00:00,23.0,20.0,30.33,South,173,8.0,9.0,88,0.00,,,0.02,Wunderground v.1.15,2013-03-14 03:00:00,
2013-03-13 22:01:00,23.1,20.1,30.33,SSE,167,8.0,9.0,88,0.00,,,0.02,Wunderground v.1.15,2013-03-14 03:01:00,
2013-03-13 22:02:00,23.1,20.1,30.33,South,174,9.0,9.0,88,0.00,,,0.02,Wunderground v.1.15,2013-03-14 03:02:00,
2013-03-13 22:03:00,23.1,20.1,30.33,South,173,8.0,10.0,88,0.00,,,0.02,Wunderground v.1.15,2013-03-14 03:03:00,
2013-03-13 22:05:00,23.1,20.1,30.33,South,177,8.0,10.0,88,0.00,,,0.02,Wunderground v.1.15,2013-03-14 03:05:00,
2013-03-13 22:07:00,23.1,20.1,30.33,South,175,9.0,10.0,88,0.00,,,0.02,Wunderground v.1.15,2013-03-14 03:07:00,
2013-03-13 22:08:00,23.2,20.2,30.33,SSE,168,10.0,10.0,88,0.00,,,0.02,Wunderground v.1.15,2013-03-14 03:08:00,
2013-03-13 22:10:00,23.3,20.3,30.33,South,181,9.0,10.0,88,0.00,,,0.02,Wunderground v.1.15,2013-03-14 03:10:00,
2013-03-13 22:12:00,23.3,20.3,30.33,SSE,164,9.0,10.0,88,0.00,,,0.02,Wunderground v.1.15,2013-03-14 03:12:00,
2013-03-13 22:13:00,23.3,20.3,30.33,South,175,9.0,10.0,88,0.00,,,0.02,Wunderground v.1.15,2013-03-14 03:13:00,
2013-03-13 22:16:00,23.3,20.3,30.32,South,172,9.0,10.0,88,0.00,,,0.02,Wunderground v.1.15,2013-03-14 03:16:00,
2013-03-13 22:18:00,23.3,20.3,30.32,SSE,159,8.0,10.0,88,0.00,,,0.02,Wunderground v.1.15,2013-03-14 03:18:00,
2013-03-13 22:19:00,23.3,20.3,30.32,SSE,167,8.0,10.0,88,0.00,,,0.02,Wunderground v.1.15,2013-03-14 03:19:00,
2013-03-13 22:21:00,23.3,20.3,30.32,South,172,8.0,9.0,88,0.00,,,0.02,Wunderground v.1.15,2013-03-14 03:21:00,
2013-03-13 22:24:00,23.4,20.4,30.32,South,179,9.0,10.0,88,0.00,,,0.02,Wunderground v.1.15,2013-03-14 03:24:00,
2013-03-13 22:27:00,23.5,20.5,30.32,South,171,9.0,10.0,88,0.00,,,0.02,Wunderground v.1.15,2013-03-14 03:27:00,
2013-03-13 22:29:00,23.6,20.6,30.32,South,184,8.0,11.0,88,0.00,,,0.02,Wunderground v.1.15,2013-03-14 03:29:00,
2013-03-13 22:32:00,23.6,20.6,30.32,SSE,167,7.0,9.0,88,0.00,,,0.02,Wunderground v.1.15,2013-03-14 03:32:00,
2013-03-13 22:34:00,23.6,20.6,30.32,South,173,10.0,11.0,88,0.00,,,0.02,Wunderground v.1.15,2013-03-14 03:34:00,
2013-03-13 22:35:00,23.6,20.6,30.32,SSE,167,9.0,11.0,88,0.00,,,0.02,Wunderground v.1.15,2013-03-14 03:35:00,
2013-03-13 22:37:00,23.7,20.7,30.32,South,174,10.0,11.0,88,0.00,,,0.02,Wunderground v.1.15,2013-03-14 03:37:00,
2013-03-13 22:39:00,23.7,20.7,30.32,South,172,9.0,11.0,88,0.00,,,0.02,Wunderground v.1.15,2013-03-14 03:39:00,
2013-03-13 22:40:00,23.7,20.7,30.32,South,172,9.0,10.0,88,0.00,,,0.02,Wunderground v.1.15,2013-03-14 03:40:00,
2013-03-13 22:42:00,23.7,20.7,30.31,SSE,161,9.0,11.0,88,0.00,,,0.02,Wunderground v.1.15,2013-03-14 03:42:00,
2013-03-13 22:45:00,23.8,20.8,30.31,South,175,8.0,11.0,88,0.00,,,0.02,Wunderground v.1.15,2013-03-14 03:45:00,
2013-03-13 22:46:00,23.8,20.8,30.31,SSE,164,8.0,12.0,88,0.00,,,0.02,Wunderground v.1.15,2013-03-14 03:46:00,
2013-03-13 22:48:00,23.8,20.8,30.31,South,178,8.0,12.0,88,0.00,,,0.02,Wunderground v.1.15,2013-03-14 03:48:00,
2013-03-13 22:50:00,23.8,20.8,30.31,SSE,166,8.0,12.0,88,0.00,,,0.02,Wunderground v.1.15,2013-03-14 03:50:00,
2013-03-13 22:51:00,23.9,20.9,30.31,South,180,8.0,11.0,88,0.00,,,0.02,Wunderground v.1.15,2013-03-14 03:51:00,
2013-03-13 22:53:00,23.9,20.9,30.31,South,169,8.0,11.0,88,0.00,,,0.02,Wunderground v.1.15,2013-03-14 03:53:00,
2013-03-13 22:55:00,23.9,20.9,30.31,South,173,8.0,12.0,88,0.00,,,0.02,Wunderground v.1.15,2013-03-14 03:55:00,
2013-03-13 22:57:00,23.9,20.9,30.32,South,180,9.0,12.0,88,0.00,,,0.02,Wunderground v.1.15,2013-03-14 03:57:00,
2013-03-13 22:58:00,23.9,20.9,30.32,South,182,8.0,12.0,88,0.00,,,0.02,Wunderground v.1.15,2013-03-14 03:58:00,
2013-03-13 23:00:00,23.9,20.9,30.32,South,176,9.0,12.0,88,0.00,,,0.02,Wunderground v.1.15,2013-03-14 04:00:00,
2013-03-13 23:05:00,24.0,21.0,30.31,SSE,161,10.0,12.0,88,0.00,,,0.02,Wunderground v.1.15,2013-03-14 04:05:00,
2013-03-13 23:06:00,24.1,21.1,30.31,South,173,8.0,12.0,88,0.00,,,0.02,Wunderground v.1.15,2013-03-14 04:06:00,
2013-03-13 23:07:00,24.1,21.1,30.31,South,174,9.0,12.0,88,0.00,,,0.02,Wunderground v.1.15,2013-03-14 04:07:00,
2013-03-13 23:10:00,24.1,21.1,30.31,South,169,8.0,9.0,88,0.00,,,0.02,Wunderground v.1.15,2013-03-14 04:10:00,
2013-03-13 23:11:00,24.1,21.1,30.31,South,175,9.0,10.0,88,0.00,,,0.02,Wunderground v.1.15,2013-03-14 04:11:00,
2013-03-13 23:12:00,24.1,21.1,30.31,South,169,8.0,10.0,88,0.00,,,0.02,Wunderground v.1.15,2013-03-14 04:12:00,
2013-03-13 23:15:00,24.2,21.2,30.31,SSE,165,9.0,10.0,88,0.00,,,0.02,Wunderground v.1.15,2013-03-14 04:15:00,
2013-03-13 23:17:00,24.2,21.2,30.31,South,188,10.0,10.0,88,0.00,,,0.02,Wunderground v.1.15,2013-03-14 04:17:00,
2013-03-13 23:18:00,24.2,21.2,30.31,South,171,7.0,10.0,88,0.00,,,0.02,Wunderground v.1.15,2013-03-14 04:18:00,
2013-03-13 23:20:00,24.3,21.3,30.31,South,171,10.0,11.0,88,0.00,,,0.02,Wunderground v.1.15,2013-03-14 04:20:00,
2013-03-13 23:22:00,24.3,21.3,30.31,South,178,9.0,11.0,88,0.00,,,0.02,Wunderground v.1.15,2013-03-14 04:22:00,
2013-03-13 23:23:00,24.4,21.4,30.31,South,169,8.0,11.0,88,0.00,,,0.02,Wunderground v.1.15,2013-03-14 04:23:00,
2013-03-13 23:25:00,24.4,21.4,30.31,South,176,9.0,11.0,88,0.00,,,0.02,Wunderground v.1.15,2013-03-14 04:25:00,
2013-03-13 23:27:00,24.5,21.5,30.31,South,172,8.0,11.0,88,0.00,,,0.02,Wunderground v.1.15,2013-03-14 04:27:00,
2013-03-13 23:29:00,24.4,21.4,30.31,South,175,8.0,11.0,88,0.00,,,0.02,Wunderground v.1.15,2013-03-14 04:29:00,
2013-03-13 23:30:00,24.5,21.5,30.31,South,180,5.0,8.0,88,0.00,,,0.02,Wunderground v.1.15,2013-03-14 04:30:00,
2013-03-13 23:32:00,24.5,21.5,30.31,SSE,166,8.0,10.0,88,0.00,,,0.02,Wunderground v.1.15,2013-03-14 04:32:00,
2013-03-13 23:33:00,24.4,21.4,30.31,South,178,8.0,10.0,88,0.00,,,0.02,Wunderground v.1.15,2013-03-14 04:33:00,
2013-03-13 23:34:00,24.5,21.5,30.31,South,175,7.0,10.0,88,0.00,,,0.02,Wunderground v.1.15,2013-03-14 04:34:00,
2013-03-13 23:35:00,24.5,21.5,30.31,South,170,7.0,10.0,88,0.00,,,0.02,Wunderground v.1.15,2013-03-14 04:35:00,
2013-03-13 23:37:00,24.5,21.5,30.31,South,170,8.0,10.0,88,0.00,,,0.02,Wunderground v.1.15,2013-03-14 04:37:00,
2013-03-13 23:38:00,24.5,21.2,30.30,South,171,6.0,10.0,87,0.00,,,0.02,Wunderground v.1.15,2013-03-14 04:38:00,
2013-03-13 23:39:00,24.5,21.5,30.31,South,182,8.0,10.0,88,0.00,,,0.02,Wunderground v.1.15,2013-03-14 04:39:00,
2013-03-13 23:40:00,24.5,21.5,30.30,South,171,8.0,8.0,88,0.00,,,0.02,Wunderground v.1.15,2013-03-14 04:40:00,
2013-03-13 23:42:00,24.6,21.6,30.30,South,173,7.0,8.0,88,0.00,,,0.02,Wunderground v.1.15,2013-03-14 04:42:00,
2013-03-13 23:43:00,24.6,21.6,30.30,South,169,8.0,11.0,88,0.00,,,0.02,Wunderground v.1.15,2013-03-14 04:43:00,
2013-03-13 23:44:00,24.7,21.4,30.30,South,180,6.0,11.0,87,0.00,,,0.02,Wunderground v.1.15,2013-03-14 04:44:00,
2013-03-13 23:45:00,24.7,21.4,30.30,South,180,7.0,11.0,87,0.00,,,0.02,Wunderground v.1.15,2013-03-14 04:45:00,
2013-03-13 23:47:00,24.8,21.5,30.30,South,170,7.0,11.0,87,0.00,,,0.02,Wunderground v.1.15,2013-03-14 04:47:00,
2013-03-13 23:48:00,24.8,21.5,30.29,South,174,6.0,11.0,87,0.00,,,0.02,Wunderground v.1.15,2013-03-14 04:48:00,
2013-03-13 23:49:00,24.8,21.5,30.29,SSE,161,9.0,11.0,87,0.00,,,0.02,Wunderground v.1.15,2013-03-14 04:49:00,
2013-03-13 23:50:00,24.8,21.5,30.29,SSE,165,7.0,8.0,87,0.00,,,0.02,Wunderground v.1.15,2013-03-14 04:50:00,
2013-03-13 23:52:00,24.8,21.5,30.29,South,171,8.0,10.0,87,0.00,,,0.02,Wunderground v.1.15,2013-03-14 04:52:00,
2013-03-13 23:53:00,24.9,21.6,30.29,South,184,7.0,10.0,87,0.00,,,0.02,Wunderground v.1.15,2013-03-14 04:53:00,
2013-03-13 23:55:00,24.9,21.6,30.29,South,169,8.0,10.0,87,0.00,,,0.02,Wunderground v.1.15,2013-03-14 04:55:00,
2013-03-13 23:57:00,24.9,21.6,30.29,South,171,9.0,10.0,87,0.00,,,0.02,Wunderground v.1.15,2013-03-14 04:57:00,
2013-03-13 23:59:00,24.9,21.6,30.29,South,171,8.0,10.0,87,0.00,,,0.02,Wunderground v.1.15,2013-03-14 04:59:00,